     2              OBSERVATION DATA    G (GPS)             RINEX VERSION / TYPE
ASHTORIN ICS 05 - DEC - 99 18:24                            PGM / RUN BY / DATE
Rover                                                       COMMENT
????                                                        MARKER NAME
                                                            MARKER NUMBER
RLW ICS                                                     OBSERVER / AGENCY
217 ASHTECH Z-XII3 4J00 1C63                                REC # / TYPE / VERS
742 choke ring                                              ANT # / TYPE
 -2325576.2400 -4725298.1400  3586901.4900                  APPROX POSITION XYZ
        2.0000        0.0000        0.0000                  ANTENNA: DELTA H/E/N
     1     1                                                WAVELENGTH FACT L1/2
     7    L1    L2    C1    P1    P2    D1    D2            # / TYPES OF OBSERV
    10.0000                                                 INTERVAL
                                                            LEAP SECONDS
  1980     4    13    21    30   10.000000      GPS         TIME OF FIRST OBS
  1980     4    13    21    52   39.999000      GPS         TIME OF LAST OBS
                                                            END OF HEADER
 80  4 13 21 30 10.0000000  0  6G19G18G16G31G02G01                  -0.000627746
     -7826.14319         0.000 1  19198854.077           0.000           0.000
       987.214         769.258
      6991.83419         0.000 1  18910475.309           0.000           0.000
      -886.002        -690.391
     10832.55819         0.000 1  22885119.456           0.000           0.000
     -2784.303       -2169.587
     -7394.32619         0.000 1  20197269.899           0.000           0.000
      1148.213         894.711
    -14737.03419         0.000 1  21847098.596           0.000           0.000
      2997.187        2335.470
     13541.94619         0.000 1  22779561.476           0.000           0.000
     -2791.760       -2175.397
 80  4 13 21 30 20.0000000  0  9G19G18G16G31G27G03G02G01G13         -0.000631311
    -17694.844 9     -7594.58359  19196976.159    19196977.9425   19196986.9695
       986.116         768.402
     15873.463 9      6834.71559  18912165.282    18912166.7775   18912175.5205
      -890.704        -694.055
     38659.768 8      8295.11752  22890417.139           0.0005          0.0005
     -2782.180       -2167.932
    -18851.467 9     -8812.02157  20195090.118    20195092.8605   20195102.7915
      1142.842         890.526
    -30587.55119     -7270.70458  20459435.366           0.0005   20459449.0275
      2435.952        1898.144
     12408.67819      3238.93552  22032368.493           0.0005          0.0005
     -1087.375        -847.305
    -44700.571 9    -23035.63552  21841397.080           0.0005          0.0005
      2995.161        2333.892
     41460.977 9     21463.59452  22784874.626           0.0005          0.0005
     -2792.415       -2175.908
    -40492.52719     -9388.39257  20608436.883           0.0005   20608450.1045
      3144.554        2450.302
 80  4 13 21 30 30.0000000  0  9G19G18G16G31G27G03G02G01G13         -0.000635094
    -27546.092 9    -15270.87148  19195101.494    19195103.1475   19195112.2994
       984.280         766.971
     24808.735 9     13797.25349  18913865.606    18913867.1325   18913875.7604
      -896.178        -698.321
     66477.732 9     29971.46342  22895710.362           0.0004          0.0004
     -2781.301       -2167.247
    -30248.902 9    -17693.13447  20192922.065    20192924.1125   20192934.1604
      1136.770         885.795
    -54943.009 9    -26249.00858  20454800.539    20454802.0274   20454811.7895
      2435.323        1897.654
     23309.821 9     11733.31842  22034441.200           0.0004          0.0004
     -1092.708        -851.461
    -74637.743 9    -46363.29642  21835699.565           0.0004          0.0004
      2992.415        2331.752
     69393.359 9     43229.09042  22790189.839           0.0004          0.0004
     -2793.871       -2177.042
    -71923.110 9    -33879.74057  20602456.231    20602458.6654   20602467.5865
      3141.806        2448.161
 80  4 13 21 30 40.0000000  0  9G19G18G16G31G27G03G02G01G13         -0.000638878
    -37375.217 9    -22929.92348  19193231.589    19193232.7324   19193241.8644
       980.996         764.412
     33802.215 9     20805.15349  18915577.610    18915578.6954   18915587.2204
      -903.010        -703.644
     94290.820 9     51643.59745  22901002.447           0.0004          0.0004
     -2781.847       -2167.673
    -41580.940 9    -26523.28447  20190766.216    20190767.5944   20190777.7614
      1129.132         879.843
    -79288.142 9    -45219.22348  20450168.092    20450169.4335   20450179.2444
      2433.176        1895.981
     34267.993 9     20272.31445  22036527.715           0.0004          0.0004
     -1099.483        -856.740
   -104542.307 9    -69665.60946  21830009.091    21830010.1004   21830022.2164
      2988.013        2328.322
     97344.305 9     65009.06345  22795508.894           0.0004          0.0004
     -2796.823       -2179.343
   -103321.999 9    -58346.37647  20596481.551    20596483.6455   20596492.4344
      3137.558        2444.850
 80  4 13 21 30 50.0000000  3  2
E15S                                                        MARKER NAME
--> THIS IS THE START OF A NEW SITE <---                    COMMENT
 80  4 13 21 30 50.0000000  0  9G19G18G16G31G27G03G02G01G13         -0.000642659
    -47180.414 9    -30570.32549  19191366.122    19191366.9004   19191376.0114
       979.285         763.079
     42855.166 9     27859.39349  18917300.749    18917301.4744   18917309.9854
      -908.315        -707.778
    122100.881 8     73313.66545  22906294.943           0.0004          0.0004
     -2780.869       -2166.911
    -52845.526 9    -35300.87147  20188623.132    20188624.0104   20188634.1894
      1123.042         875.098
   -103620.656 9    -64179.60348  20445538.254    20445538.9734   20445548.9084
      2432.568        1895.508
     45285.105 9     28857.06646  22038624.948           0.0004          0.0004
     -1104.725        -860.825
   -134413.096 9    -92941.51256  21824325.460    21824325.7874   21824338.9425
      2985.430        2326.309
    125315.484 9     86804.73145  22800832.014    22800832.6634   22800849.5814
     -2798.205       -2180.419
   -134686.841 9    -82786.47847  20590513.598    20590514.9504   20590523.8644
      3134.727        2442.644
 80  4 13 21 31  0.0000000  0  9G19G18G16G31G27G03G02G01G13         -0.000646439
    -56961.606 9    -38192.02349  19189505.063    19189505.6214   19189514.7124
       976.948         761.258
     51968.359 9     34960.57549  18919035.165    18919035.6684   18919044.1964
      -914.244        -712.398
    149907.147 9     94980.84545  22911586.450    22911586.3094   22911603.1054
     -2780.337       -2166.496
    -64042.207 9    -44025.54347  20186492.731    20186493.3284   20186503.5034
      1116.343         869.878
   -127940.237 9    -83129.91348  20440910.633    20440911.1154   20440921.0294
      2431.409        1894.604
     56361.474 9     37487.94446  22040733.031           0.0004          0.0004
     -1110.513        -865.335
   -164251.505 9   -116192.18346  21818647.742    21818648.3835   21818661.4584
      2982.370        2323.925
    153308.452 9    108617.36945  22806159.127    22806160.2944   22806176.4834
     -2800.381       -2182.115
   -166016.769 9   -107199.37847  20584552.027    20584553.1194   20584561.9454
      3131.357        2440.018
 80  4 13 21 31 10.0000000  0  9G19G18G16G31G27G03G02G01G13          0.000155480
    -66711.758 9    -45789.53348  20686612.125    20686612.5294   20686621.6224
       974.768         759.559
     61138.236 9     42105.92549  20419742.572    20419742.9344   20419751.4794
      -919.910        -716.813
    177696.680 9    116634.95745  24415837.074    24415836.9494   24415853.8784
     -2779.598       -2165.921
    -75163.390 9    -52691.39547  21683338.947    21683339.3114   21683349.4784
      1109.720         864.717
   -152233.641 9   -102059.81248  21935250.193    21935250.4994   21935260.4254
      2430.451        1893.858
     67491.563 9     46160.70546  23541813.575    23541814.2574   23541827.4684
     -1115.884        -869.520
   -194042.331 9   -139405.79146  23311941.274    23311941.6604   23311954.6334
      2979.514        2321.699
    181311.650 9    130437.97145  24310450.378    24310450.4744   24310467.3274
     -2802.315       -2183.622
   -197294.341 9   -131571.47847  22077562.572    22077563.4894   22077572.2944
      3128.093        2437.475
 80  4 13 21 31 20.0000000  0  9G19G18G16G31G27G03G02G01G13          0.000151706
    -76440.548 9    -53370.39649  20684760.919    20684761.2244   20684770.3154
       971.331         756.881
     70373.606 9     49302.31249  20421500.116    20421500.3814   20421508.9274
      -926.825        -722.201
    205497.384 9    138297.73755  24421127.468    24421128.0974   24421144.7695
     -2780.180       -2166.374
    -86218.239 9    -61305.54447  21681235.429    21681235.6194   21681245.8274
      1101.591         858.383
   -176525.503 9   -120988.51248  21930627.703    21930627.9014   21930637.8174
      2428.290        1892.174
     78685.027 9     54882.85946  23543943.764    23543944.4584   23543957.5694
     -1122.465        -874.648
   -223814.721 9   -162605.01946  23306275.921    23306276.0404   23306289.1214
      2975.345        2318.451
    209352.903 8    152288.23955  24315786.602    24315787.2204   24315803.1875
     -2805.593       -2186.176
   -228550.108 9   -155926.58647  22071614.894    22071615.6984   22071624.5544
      3123.512        2433.905
 80  4 13 21 31 30.0000000  0  9G19G18G16G31G27G03G02G01G13          0.000147936
    -86139.461 9    -60927.98149  20682915.363    20682915.6134   20682924.6854
       968.334         754.546
     79673.864 9     56549.26149  20423269.970    20423270.1624   20423278.7124
      -933.313        -727.257
    233299.693 8    159961.77145  24426418.157    24426418.3765   24426435.0244
     -2780.328       -2166.489
    -97196.952 9    -69860.38047  21679146.384    21679146.4624   21679156.6744
      1094.051         852.507
   -200800.587 9   -139904.14148  21926008.357    21926008.4594   21926018.4044
      2426.614        1890.868
     89939.261 9     63652.37356  23546085.507    23546086.4254   23546100.3515
     -1128.486        -879.340
   -253550.359 9   -185775.60646  23300617.536    23300617.5364   23300630.5704
      2971.738        2315.640
    237421.740 8    174160.00045  24321128.073    24321128.8165   24321144.6134
     -2808.286       -2188.275
   -259764.968 9   -180249.81647  22065674.971    22065675.6754   22065684.5584
      3119.471        2430.757
 80  4 13 21 31 40.0000000  0  9G19G18G16G31G27G03G02G01G13          0.000144168
    -95813.755 9    -68466.38349  20681074.492    20681074.6694   20681083.7414
       966.580         753.179
     89033.026 9     63842.10549  20425051.025    20425051.1664   20425059.7224
      -938.426        -731.241
    261097.792 8    181622.52545  24431708.019    24431707.9114   24431725.1234
     -2779.218       -2165.624
   -108105.301 9    -78360.37548  21677070.701    21677070.6684   21677080.9064
      1087.659         847.526
   -225064.604 9   -158811.14948  21921391.104    21921391.1404   21921401.1124
      2426.269        1890.599
    101247.248 9     72463.76946  23548237.477    23548237.9545   23548252.1754
     -1133.056        -882.901
   -283257.232 9   -208923.78446  23294964.597    23294964.5104   23294977.4824
      2969.697        2314.050
    265511.047 9    196047.71045  24326473.356    24326473.7514   24326489.8364
     -2809.505       -2189.225
   -290945.344 9   -204546.18447  22059741.604    22059742.2494   22059751.1364
      3116.725        2428.617
 80  4 13 21 31 50.0000000  0  9G19G18G16G31G27G03G02G01G13          0.000140401
   -105460.166 9    -75983.05449  20679238.908    20679239.0374   20679248.0974
       963.292         750.617
     98453.604 9     71182.80849  20426843.762    20426843.8464   20426852.4064
      -945.063        -736.413
    288894.791 8    203282.42545  24436997.712    24436997.5854   24437014.6644
     -2779.554       -2165.886
   -118939.323 9    -86802.46147  21675009.095    21675009.0384   21675019.2904
      1079.744         841.359
   -249315.076 9   -177707.60148  21916776.414    21916776.4194   21916786.3974
      2424.403        1889.145
    112611.276 9     81318.82646  23550400.096    23550400.6864   23550414.4554
     -1139.166        -887.662
   -312933.350 9   -232047.99446  23289317.465    23289317.3084   23289330.2494
      2966.138        2311.276
    293622.615 8    217952.77545  24331822.898    24331823.3184   24331839.0794
     -2812.165       -2191.297
   -322087.893 9   -228813.07147  22053815.408    22053815.9944   22053824.9014
      3112.489        2425.316
 80  4 13 21 32  0.0000000  0  9G19G18G16G31G27G03G02G01G13          0.000136637
   -115079.732 9    -83478.81149  20677408.416    20677408.5044   20677417.5754
       960.893         748.748
    107934.147 9     78570.23449  20428647.893    20428647.9404   20428656.5094
      -950.750        -740.844
    316689.374 8    224940.43645  24442286.922    24442286.7774   24442303.6774
     -2779.063       -2165.504
   -129700.431 9    -95187.73348  21672961.396    21672961.2884   21672971.5324
      1072.764         835.920
   -273552.548 9   -196593.92248  21912164.199    21912164.1714   21912174.1584
      2423.383        1888.350
    124031.394 9     90217.60046  23552573.377    23552573.6204   23552587.5964
     -1144.563        -891.867
   -342580.097 9   -255149.31746  23283675.958    23283675.7034   23283688.6494
      2963.528        2309.243
    321754.852 8    239873.95445  24337176.353    24337176.7324   24337192.4774
     -2814.006       -2192.732
   -353194.342 9   -253051.82947  22047896.091    22047896.6314   22047905.5504
      3109.187        2422.743
 80  4 13 21 32 10.0000000  0  9G19G18G16G31G27G03G02G01G13          0.000132869
   -124679.528 9    -90959.16349  20675581.672    20675581.7334   20675590.8004
       959.407         747.590
    117467.199 9     85998.57849  20430462.006    20430462.0284   20430470.5944
      -955.489        -744.537
    344475.343 8    246591.76145  24447574.497    24447574.3614   24447591.2154
     -2777.794       -2164.515
   -140396.120 9   -103522.02648  21670926.117    21670925.9674   21670936.2154
      1066.714         831.206
   -297784.156 9   -215475.67448  21907553.102    21907553.0424   21907563.0194
      2423.322        1888.303
    135501.053 9     99154.97346  23554756.002    23554756.2944   23554770.2124
     -1148.970        -895.301
   -372205.227 9   -278233.79746  23278038.537    23278038.2274   23278051.1644
      2961.858        2307.941
    349901.634 8    261806.44845  24342532.564    24342532.8154   24342548.8334
     -2815.011       -2193.515
   -384271.386 9   -277267.68347  22041982.348    22041982.8594   22041991.7654
      3106.696        2420.802
 80  4 13 21 32 20.0000000  0 10G19G18G16G31G27G03G02G01G10G13       0.000129103
   -134254.829 9    -98420.42749  20673759.591    20673759.6164   20673768.6984
       956.444         745.281
    127057.010 9     93471.15149  20432286.926    20432286.9144   20432295.4824
      -961.638        -749.328
    372257.602 8    268240.15445  24452861.374    24452861.1574   24452878.0604
     -2777.808       -2164.526
   -151021.282 9   -111801.35948  21668904.238    21668904.0824   21668914.3124
      1059.096         825.270
   -322006.232 9   -234349.99948  21902943.823    21902943.7264   21902953.7114
      2421.930        1887.218
    147023.588 9    108133.55146  23556948.774    23556949.0744   23556962.9824
     -1154.726        -899.786
   -401803.858 9   -301297.63346  23272406.115    23272405.7774   23272418.7024
      2958.732        2305.505
    378068.113 8    283754.28645  24347892.508    24347892.8244   24347908.9034
     -2817.517       -2195.468
    -14140.42918         0.000 1  24417766.879           0.000           0.000
      1856.969        1446.989
   -415314.563 9   -301457.13447  22036075.053    22036075.5244   22036084.4334
      3102.799        2417.765
 80  4 13 21 32 30.0000000  0 10G19G18G16G31G27G03G02G01G10G13       0.000125336
   -143808.175 9   -105864.58549  20671941.668    20671941.6654   20671950.7514
       954.094         743.450
    136700.497 9    100985.54449  20434122.051    20434122.0204   20434130.5944
      -967.166        -753.636
    400032.081 8    289882.50445  24458146.750    24458146.5624   24458163.3984
     -2777.108       -2163.980
   -161577.022 9   -120026.60648  21666895.578    21666895.4084   21666905.6104
      1051.972         819.718
   -346222.744 9   -253219.99348  21898335.591    21898335.4784   21898345.4504
      2421.285        1886.716
    158595.727 9    117150.77546  23559150.951    23559151.2344   23559165.0314
     -1159.811        -903.749
   -431379.661 9   -324343.65646  23266778.032    23266777.6744   23266790.6354
      2956.374        2303.668
    406252.731 8    305716.27345  24353255.921    24353256.1534   24353272.2424
     -2819.492       -2197.007
    -32682.96518     -2606.30652  24414239.487           0.0005          0.0005
      1851.430        1442.673
   -446325.866 9   -325621.75547  22030173.811    22030174.2644   22030183.1674
      3099.424        2415.136
 80  4 13 21 32 40.0000000  0 10G19G18G16G31G27G03G02G01G10G13       0.000121572
   -153335.628 9   -113288.56749  20670128.667    20670128.6454   20670137.7344
       951.223         741.213
    146401.721 9    108544.93149  20435968.160    20435968.1134   20435976.6844
      -973.200        -758.338
    427801.516 8    311520.93345  24463431.156    24463430.9424   24463447.8774
     -2776.918       -2163.832
   -172059.354 9   -128194.65047  21664900.896    21664900.6854   21664910.8854
      1044.368         813.793
   -370431.077 9   -272083.61248  21893728.910    21893728.7754   21893738.7694
      2420.221        1885.886
    170221.513 9    126209.79846  23561363.311    23561363.5384   23561377.2944
     -1165.441        -908.136
   -460931.300 9   -347370.87046  23261154.557    23261154.1524   23261167.1034
      2953.863        2301.711
    434458.032 8    327694.37745  24358623.256    24358623.4314   24358639.3974
     -2821.717       -2198.740
    -51166.935 8    -17009.44442  24410720.750           0.0004          0.0004
      1845.275        1437.877
   -477300.849 9   -349758.07347  22024279.478    22024279.9054   22024288.8274
      3095.513        2412.088
 80  4 13 21 32 50.0000000  0 10G19G18G16G31G27G03G02G01G10G13       0.000117806
   -162839.551 9   -120694.21249  20668320.147    20668320.1074   20668329.2024
       949.245         739.671
    156157.215 9    116146.60849  20437824.598    20437824.5344   20437833.1044
      -978.158        -762.201
    455563.242 8    333153.34545  24468714.097    24468713.8464   24468730.8154
     -2775.753       -2162.924
   -182471.186 9   -136307.75847  21662919.610    21662919.3844   21662929.5754
      1037.737         808.626
   -394633.611 9   -290942.70448  21889123.334    21889123.1704   21889133.1744
      2420.013        1885.724
    181897.847 9    135308.22446  23563585.298    23563585.5604   23563599.2474
     -1170.067        -911.741
   -490462.264 9   -370381.97146  23255535.000    23255534.5824   23255547.5724
      2952.157        2300.382
    462680.074 8    349685.51745  24363993.765    24363993.8624   24364009.9094
     -2822.992       -2199.734
    -69594.624 8    -31368.67742  24407214.838           0.0004          0.0004
      1840.023        1433.784
   -508241.882 9   -373867.93847  22018391.607    22018392.0144   22018400.9384
      3092.515        2409.752
 80  4 13 21 33  0.0000000  0 10G19G18G16G31G27G03G02G01G10G13       0.000114040
   -172318.749 9   -128080.59149  20666516.324    20666516.2694   20666525.3584
       946.382         737.441
    165966.804 9    123790.43449  20439691.322    20439691.2394   20439699.8114
      -984.010        -766.761
    483317.937 8    354780.26445  24473995.697    24473995.4214   24474012.4364
     -2775.449       -2162.688
   -192812.593 9   -144365.98948  21660951.749    21660951.4974   21660961.6624
      1030.348         802.869
   -418829.303 9   -309796.47548  21884519.058    21884518.8824   21884528.8854
      2418.912        1884.866
    193624.888 9    144446.16046  23565816.936    23565817.1594   23565830.7934
     -1175.588        -916.043
   -519971.884 9   -393376.42947  23249919.521    23249919.0834   23249932.0914
      2949.563        2298.361
    490918.815 8    371689.66645  24369367.432    24369367.5884   24369383.5244
     -2825.032       -2201.324
    -87965.076 8    -45683.69945  24403719.380           0.0004          0.0004
      1833.842        1428.968
   -539147.743 9   -397950.40047  22012510.437    22012510.8134   22012519.7454
      3088.536        2406.651
 80  4 13 21 33 10.0000000  0 10G19G18G16G31G27G03G02G01G10G13       0.000110274
   -181773.911 9   -135448.24549  20664717.083    20664717.0234   20664726.1124
       944.861         736.255
    175830.642 9    131476.52849  20441568.369    20441568.2754   20441576.8634
      -988.543        -770.293
    511065.575 8    376401.68645  24479275.934    24479275.6554   24479292.7204
     -2773.890       -2161.473
   -203084.465 9   -152370.03647  21658997.105    21658996.8274   21659006.9874
      1024.207         798.083
   -443018.711 9   -328645.34948  21879915.968    21879915.8024   21879925.7954
      2419.173        1885.070
    205402.693 9    153623.63846  23568058.194    23568058.4074   23568072.0164
     -1179.786        -919.314
   -549460.340 9   -416354.40547  23244308.052    23244307.6134   23244320.6194
      2948.283        2297.363
    519173.881 8    393706.54145  24374744.252    24374744.3974   24374760.2134
     -2825.816       -2201.935
   -106278.042 8    -59953.59445  24400234.954           0.0004          0.0004
      1828.937        1425.146
   -570018.232 9   -422005.29247  22006635.995    22006636.3534   22006645.2884
      3085.868        2404.572
 80  4 13 21 33 20.0000000  0 10G19G18G16G31G27G03G02G01G10G13       0.000106504
   -191210.373 9   -142801.32649  20662921.406    20662921.3304   20662930.4234
       943.149         734.921
    185743.405 9    139200.74949  20443454.721    20443454.6224   20443463.2104
      -993.258        -773.967
    538801.623 8    398014.09045  24484553.979    24484553.7594   24484570.8124
     -2772.613       -2160.478
   -213291.574 9   -160323.63047  21657054.768    21657054.4764   21657064.6414
      1017.924         793.188
   -467206.715 9   -347493.12948  21875313.158    21875312.9744   21875322.9594
      2419.146        1885.049
    217225.934 9    162836.53146  23570308.126    23570308.3224   23570321.8564
     -1184.175        -922.734
   -578931.200 9   -439318.66947  23238699.948    23238699.5004   23238712.5134
      2946.587        2296.042
    547440.557 8    415732.48445  24380123.239    24380123.4044   24380139.1444
     -2826.770       -2202.678
   -124537.807 8    -74181.92845  24396760.298           0.0004   24396771.6714
      1823.780        1421.127
   -600858.767 9   -446036.85247  22000767.238    22000767.5714   22000776.5214
      3083.035        2402.365
 80  4 13 21 33 30.0000000  0 10G19G18G16G31G27G03G02G01G10G13       0.000102734
   -200625.699 9   -150137.93549  20661129.737    20661129.6534   20661138.7604
       940.171         732.601
    195707.750 9    146965.16549  20445350.895    20445350.7734   20445359.3674
      -999.375        -778.734
    566528.988 8    419619.72045  24489830.330    24489830.1874   24489847.2884
     -2772.613       -2160.478
   -223431.370 9   -168224.75847  21655125.253    21655124.9514   21655135.1034
      1010.309         787.254
   -491389.737 9   -366337.01848  21870711.294    21870711.0894   21870721.0984
      2417.715        1883.934
    229097.884 9    172087.37346  23572567.316    23572567.5074   23572581.0454
     -1190.009        -927.280
   -608380.253 9   -462265.93947  23233095.998    23233095.5294   23233108.5504
      2943.478        2293.619
    575720.742 8    437768.92645  24385504.777    24385504.9504   24385520.6754
     -2828.947       -2204.374
   -142741.471 8    -88366.52145  24393296.334    24393295.7694   24393308.9534
      1817.238        1416.030
   -631666.309 9   -470042.69347  21994904.760    21994905.0934   21994914.0524
      3078.824        2399.084
 80  4 13 21 33 40.0000000  0 10G19G18G16G31G27G03G02G01G10G13       0.000098962
   -210022.414 9   -157460.04649  20659341.618    20659341.5294   20659350.6294
       938.685         731.443
    205722.831 9    154769.11449  20447256.704    20447256.5864   20447265.1764
     -1004.103        -782.418
    594245.445 8    441216.82245  24495104.625    24495104.4464   24495121.5584
     -2771.153       -2159.340
   -233506.575 9   -176075.56347  21653208.034    21653207.7134   21653217.8494
      1004.295         782.568
   -515569.184 9   -385178.12848  21866110.115    21866109.9104   21866119.9054
      2417.691        1883.915
    241018.321 9    181376.01146  23574835.743    23574835.8904   23574849.4294
     -1194.541        -930.811
   -637809.160 9   -485197.52047  23227495.893    23227495.3894   23227508.4054
      2941.889        2292.381
    604012.702 8    459814.52245  24390888.587    24390888.7454   24390904.5264
     -2829.848       -2205.076
   -160890.829 8   -102508.81445  24389842.769    24389841.3254   24389856.3734
      1812.150        1412.065
   -662442.490 9   -494024.10647  21989048.260    21989048.5764   21989057.5224
      3076.057        2396.928
 80  4 13 21 33 50.0000000  0 10G19G18G16G31G27G03G02G01G10G13       0.000095189
   -219398.590 9   -164766.15049  20657557.407    20657557.3104   20657566.4084
       936.465         729.713
    215790.897 9    162614.35149  20449172.609    20449172.4594   20449181.0714
     -1009.588        -786.692
    621953.161 8    462807.15245  24500377.267    24500377.0974   24500394.2344
     -2770.419       -2158.768
   -243516.153 9   -183875.22948  21651303.283    21651302.9644   21651313.0914
       997.530         777.296
   -539742.208 9   -404014.23848  21861510.149    21861509.9354   21861519.9234
      2416.864        1883.271
    252989.810 9    190704.42246  23577113.871    23577113.9844   23577127.5274
     -1199.848        -934.946
   -667215.959 9   -508111.85547  23221899.956    23221899.4654   23221912.4744
      2939.489        2290.511
    632318.603 8    481870.99345  24396275.026    24396275.1754   24396291.0604
     -2831.420       -2206.301
   -178983.626 8   -116607.05545  24386399.941    24386399.0394   24386414.9314
      1806.338        1407.536
   -693185.853 9   -517979.93947  21983197.984    21983198.3004   21983207.2354
      3072.620        2394.249
 80  4 13 21 34  0.0000000  0 10G19G18G16G31G27G03G02G01G10G13       0.000091415
   -228754.332 9   -172056.33549  20655777.078    20655776.9724   20655786.0594
       934.708         728.344
    225912.354 9    170501.18949  20451098.667    20451098.5224   20451107.1254
     -1014.708        -790.682
    649652.577 8    484391.00745  24505648.323    24505648.1044   24505665.3224
     -2769.377       -2157.956
   -253459.128 9   -191622.99847  21649411.221    21649410.8884   21649420.9934
       991.120         772.301
   -563908.831 9   -422845.35748  21856911.403    21856911.1834   21856921.1694
      2416.492        1882.981
    265012.833 9    200072.98446  23579401.813    23579401.8754   23579415.4484
     -1204.718        -938.741
   -696600.005 9   -531008.47147  23216308.354    23216307.8454   23216320.8734
      2937.379        2288.867
    660639.309 8    503939.00445  24401664.336    24401664.3964   24401680.3514
     -2832.680       -2207.283
   -197019.043 8   -130660.60045  24382967.975    24382967.6104   24382983.0824
      1800.763        1403.192
   -723896.347 9   -541910.16947  21977353.979    21977354.2724   21977363.2134
      3069.601        2391.897
 80  4 13 21 34 10.0000000  0 10G19G18G16G31G27G03G02G01G10G13       0.000087638
   -238094.179 9   -179334.13649  20653999.777    20653999.6564   20654008.7434
       933.399         727.324
    236083.967 9    178427.10949  20453034.273    20453034.1274   20453042.7294
     -1019.465        -794.388
    677340.282 8    505965.72245  24510917.170    24510916.9014   24510934.1354
     -2768.048       -2156.921
   -263339.133 9   -199321.69647  21647531.111    21647530.7754   21647540.8754
       985.024         767.551
   -588072.498 9   -441674.17248  21852313.224    21852312.9994   21852322.9684
      2416.395        1882.905
    277084.521 9    209479.47046  23581699.018    23581699.0494   23581712.6294
     -1209.461        -942.437
   -725963.562 9   -553889.12147  23210720.645    23210720.1504   23210733.1784
      2935.536        2287.431
    688972.395 8    526016.69445  24407056.000    24407056.0634   24407071.9734
     -2833.783       -2208.142
   -214999.294 8   -144671.15855  24379546.513    24379547.0934   24379560.5295
      1795.393        1399.008
   -754578.194 9   -565818.07647  21971515.405    21971515.7014   21971524.6504
      3066.963        2389.841
 80  4 13 21 34 20.0000000  0 10G19G18G16G31G27G03G02G01G10G13       0.000083862
   -247416.988 9   -186598.65549  20652225.727    20652225.5934   20652234.6804
       931.429         725.789
    246308.158 9    186394.00649  20454979.893    20454979.7344   20454988.3424
     -1025.126        -798.799
    705017.885 8    527532.57445  24516184.082    24516183.7954   24516200.9934
     -2767.241       -2156.292
   -273154.164 9   -206969.77248  21645663.389    21645663.0514   21645673.1404
       978.229         762.256
   -612231.279 9   -460499.17548  21847715.960    21847715.7284   21847725.7144
      2415.618        1882.300
    289207.030 9    218925.54646  23584005.887    23584005.9044   23584019.4594
     -1214.781        -946.583
   -755304.349 9   -576752.02647  23205137.297    23205136.7644   23205149.7804
      2932.881        2285.362
    717321.135 8    548106.55245  24412450.631    24412450.7044   24412466.5154
     -2835.701       -2209.637
   -232921.405 8   -158636.40745  24376136.086    24376135.5115   24376150.5774
      1789.304        1394.263
   -785228.895 9   -589701.70647  21965682.756    21965683.0474   21965692.0094
      3063.518        2387.157
 80  4 13 21 34 30.0000000  0 10G19G18G16G31G27G03G02G01G10G13       0.000080087
   -256720.102 9   -193847.83149  20650455.419    20650455.2744   20650464.3474
       929.450         724.247
    256590.207 9    194405.97949  20456936.516    20456936.3554   20456944.9584
     -1030.979        -803.360
    732687.895 8    549093.52545  24521449.539    24521449.2444   24521466.4404
     -2766.381       -2155.622
   -282900.163 9   -214564.04947  21643808.792    21643808.4474   21643818.5354
       971.259         756.825
   -636381.856 9   -479317.79148  21843120.260    21843120.0214   21843130.0014
      2414.782        1881.648
    301383.110 9    228413.38646  23586322.942    23586322.9444   23586336.5094
     -1220.143        -950.761
   -784618.843 9   -599594.44347  23199558.921    23199558.4024   23199571.4004
      2930.315        2283.362
    745689.201 8    570211.47945  24417848.951    24417849.0164   24417864.8094
     -2837.547       -2211.075
   -250782.751 9   -172554.30745  24372737.259    24372736.6934   24372752.0304
      1783.318        1389.598
   -815844.529 9   -613558.01547  21959856.789    21959857.0754   21959866.0344
      3060.002        2384.417
 80  4 13 21 34 40.0000000  0 10G19G18G16G31G27G03G02G01G10G13       0.000076309
   -266009.854 9   -201086.59849  20648687.654    20648687.4904   20648696.5794
       927.833         722.987
    266924.667 9    202458.79549  20458903.114    20458902.9394   20458911.5484
     -1036.593        -807.735
    760342.701 8    570642.62745  24526712.125    24526711.8074   24526729.0444
     -2765.196       -2154.698
   -292583.645 9   -222109.61748  21641966.095    21641965.7464   21641975.8404
       964.792         751.786
   -660530.325 9   -498134.75948  21838524.958    21838524.7104   21838534.6904
      2414.212        1881.204
    313605.470 9    237937.27246  23588648.800    23588648.8054   23588662.3644
     -1225.030        -954.569
   -813914.495 9   -622422.17747  23193984.139    23193983.6124   23193996.6084
      2928.153        2281.678
    774068.164 8    592324.88345  24423249.322    24423249.3824   24423265.1954
     -2838.877       -2212.112
   -268591.135 9   -186430.93545  24369348.477    24369348.0704   24369363.2774
      1777.725        1385.240
   -846432.007 9   -637392.38947  21954036.176    21954036.4504   21954045.4174
      3056.943        2382.034
 80  4 13 21 34 50.0000000  0 10G19G18G16G31G27G03G02G01G10G13       0.000072530
   -275280.657 9   -208310.59749  20646923.484    20646923.3234   20646932.3894
       926.336         721.820
    277317.692 9    210557.24749  20460880.851    20460880.6744   20460889.2904
     -1042.001        -811.949
    787988.034 8    592184.29945  24531972.944    24531972.5694   24531989.8584
     -2763.906       -2153.693
   -302200.534 9   -229603.29648  21640136.057    21640135.7034   21640145.7984
       958.594         746.956
   -684669.890 9   -516944.79148  21833931.361    21833931.1094   21833941.0844
      2413.695        1880.801
    325879.689 9    247501.56846  23590984.538    23590984.5184   23590998.1004
     -1229.829        -958.308
   -843185.395 9   -645230.63247  23188414.076    23188413.5504   23188426.5424
      2926.043        2280.034
    802462.017 8    614449.89145  24428652.544    24428652.5434   24428668.3534
     -2839.900       -2212.909
   -286341.911 9   -200262.68245  24365970.652    24365970.3054   24365985.4794
      1772.490        1381.161
   -876986.814 9   -661201.29847  21948221.783    21948222.0514   21948231.0224
      3054.104        2379.821
 80  4 13 21 35  0.0000000  0 10G19G18G16G31G27G03G02G01G10G13       0.000068748
   -284534.101 9   -215521.06649  20645162.627    20645162.4554   20645171.5294
       924.751         720.585
    287767.687 9    218700.08649  20462869.431    20462869.2494   20462877.8684
     -1047.549        -816.272
    815624.058 8    613718.74945  24537231.990    24537231.6114   24537248.9044
     -2762.862       -2152.879
   -311752.647 9   -237046.49247  21638318.378    21638317.9924   21638328.1064
       952.295         742.048
   -708800.435 9   -535747.79948  21829339.460    21829339.2064   21829349.1904
      2412.867        1880.156
    338204.530 9    257105.31446  23593329.899    23593329.8844   23593343.4474
     -1234.694        -962.099
   -872431.029 9   -668019.38947  23182848.810    23182848.2944   23182861.2664
      2923.531        2278.076
    830869.189 8    636585.27945  24434058.292    24434058.3014   24434074.0834
     -2841.149       -2213.882
   -304037.626 8   -214051.52445  24362603.322    24362602.9434   24362618.0204
      1767.151        1377.001
   -907510.461 9   -684985.93447  21942413.327    21942413.5924   21942422.5544
      3051.169        2377.534
 80  4 13 21 35 10.0000000  0 10G19G18G16G31G27G03G02G01G10G13       0.000064961
   -293774.161 9   -222721.11149  20643404.320    20643404.1364   20643413.2074
       923.405         719.536
    298271.177 9    226884.61549  20464868.194    20464868.0054   20464876.6294
     -1053.037        -820.548
    843247.826 8    635243.67645  24542488.685    24542488.2834   24542505.5744
     -2761.768       -2152.027
   -321244.443 9   -244442.69248  21636512.135    21636511.7654   21636521.8704
       946.266         737.350
   -732924.531 9   -554545.77648  21824748.786    21824748.5384   21824758.5264
      2412.095        1879.555
    350575.193 9    266744.76546  23595683.992    23595683.9464   23595697.5254
     -1239.323        -965.706
   -901653.248 9   -690789.90247  23177287.984    23177287.4934   23177300.4404
      2921.085        2276.170
    859286.262 8    658728.36645  24439465.940    24439465.9214   24439481.6894
     -2842.139       -2214.654
   -321682.779 8   -227800.98345  24359245.570    24359245.1154   24359260.2324
      1762.051        1373.027
   -938007.028 9   -708749.46347  21936610.018    21936610.2804   21936619.2354
      3048.395        2375.373
 80  4 13 21 35 20.0000000  0 10G19G18G16G31G27G03G02G01G10G13       0.000061171
   -302998.507 9   -229908.91249  20641648.991    20641648.8014   20641657.8714
       921.717         718.221
    308832.210 9    235113.97449  20466877.905    20466877.7094   20466886.3484
     -1058.864        -825.089
    870862.071 8    656761.16945  24547743.561    24547743.1324   24547760.4454
     -2760.839       -2151.303
   -330673.503 9   -251790.00747  21634717.853    21634717.4744   21634727.5884
       939.793         732.306
   -757038.973 9   -573336.23648  21820159.973    21820159.7194   21820169.6934
      2411.082        1878.765
    362994.563 9    276422.17346  23598047.349    23598047.3044   23598060.8774
     -1244.284        -969.572
   -930849.150 9   -713539.91147  23171732.204    23171731.6704   23171744.6474
      2918.385        2274.066
    887715.982 8    680881.31845  24444875.984    24444875.9374   24444891.7174
     -2843.563       -2215.763
   -339273.797 9   -241508.23945  24355898.096    24355897.4764   24355912.7914
      1756.485        1368.690
   -968473.642 9   -732489.65847  21930812.410    21930812.6654   21930821.6284
      3045.329        2372.984
 80  4 13 21 35 30.0000000  0 10G19G18G16G31G27G03G02G01G10G13       0.000057377
   -312207.968 9   -237085.10749  20639896.498    20639896.3124   20639905.3774
       919.982         716.869
    319448.949 9    243386.75249  20468898.221    20468898.0244   20468906.6554
     -1064.656        -829.602
    898464.375 8    678269.35345  24552996.178    24552995.7124   24553013.0414
     -2759.772       -2150.472
   -340040.330 9   -259088.82348  21632935.406    21632935.0084   21632945.1464
       933.394         727.320
   -781145.343 9   -592120.40048  21815572.689    21815572.4174   21815582.4024
      2410.062        1877.970
    375461.146 9    286136.36246  23600419.684    23600419.6314   23600433.2404
     -1249.237        -973.431
   -960020.402 9   -736270.71247  23166181.082    23166180.5694   23166193.5164
      2915.747        2272.011
    916157.792 8    703043.69545  24450288.349    24450288.2764   24450304.0674
     -2844.972       -2216.861
   -356811.854 8   -255174.22345  24352560.718    24352560.0194   24352575.4424
      1750.977        1364.398
   -998912.449 9   -756208.18147  21925020.108    21925020.3594   21925029.3084
      3042.353        2370.665
 80  4 13 21 35 40.0000000  0 10G19G18G16G31G27G03G02G01G10G13       0.000053579
   -321399.438 9   -244247.29149  20638147.442    20638147.2474   20638156.3154
       917.850         715.208
    330124.357 9    251705.24149  20470929.707    20470929.4964   20470938.1434
     -1070.902        -834.469
    926056.115 8    699769.30645  24558246.801    24558246.3114   24558263.6104
     -2759.014       -2149.881
   -349343.143 9   -266337.75948  21631165.151    21631164.7454   21631174.8854
       926.715         722.116
   -805241.887 9   -610896.90748  21810987.267    21810987.0084   21810996.9684
      2408.795        1876.983
    387977.591 9    295889.41046  23602801.507    23602801.4324   23602815.0804
     -1254.582        -977.596
   -989165.317 9   -758980.98847  23160634.994    23160634.4484   23160647.4244
      2912.796        2269.711
    944613.679 8    725217.03045  24455703.358    24455703.2694   24455719.0974
     -2846.624       -2218.149
   -374295.515 8   -268797.84045  24349233.738    24349233.0404   24349248.5844
      1745.289        1359.965
  -1029321.355 9   -779903.40447  21919233.475    21919233.7284   21919242.6714
      3039.034        2368.078
 80  4 13 21 35 50.0000000  0 10G19G18G16G31G27G03G02G01G10G13       0.000049776
   -330573.699 9   -251396.06549  20636401.656    20636401.4464   20636410.5114
       916.545         714.191
    340857.982 9    260069.08749  20472972.253    20472972.0534   20472980.7014
     -1076.198        -838.596
    953636.012 8    721260.01645  24563495.180    24563494.6814   24563511.9914
     -2757.389       -2148.615
   -358582.996 9   -273537.63848  21629406.858    21629406.4504   21629416.6044
       920.914         717.595
   -829330.524 9   -629667.25348  21806403.370    21806403.1034   21806413.0484
      2408.521        1876.770
    400543.385 9    305680.89746  23605192.721    23605192.6424   23605206.3074
     -1259.012        -981.048
  -1018285.386 9   -781671.91247  23155093.603    23155093.0574   23155106.0284
      2910.830        2268.179
    973081.500 8    747399.66645  24461120.625    24461120.5184   24461136.3994
     -2847.343       -2218.709
   -391726.464 8   -282380.37845  24345916.771    24345916.0584   24345931.6494
      1740.505        1356.238
  -1059700.782 9   -803575.66247  21913452.457    21913452.6994   21913461.6464
      3036.555        2366.147
 80  4 13 21 36  0.0000000  0 10G19G18G16G31G27G03G02G01G10G13       0.000045967
   -339731.591 9   -258532.07949  20634658.977    20634658.7654   20634667.8314
       914.109         712.293
    351647.413 9    268476.43149  20475025.437    20475025.2164   20475033.8724
     -1082.465        -843.479
    981203.019 8    742740.70545  24568741.088    24568740.5934   24568757.9014
     -2756.841       -2148.188
   -367761.975 9   -280690.07847  21627660.149    21627659.7394   21627669.9124
       914.020         712.223
   -853413.056 9   -648432.84648  21801820.624    21801820.3364   21801830.2944
      2407.176        1875.722
    413156.563 9    315509.32746  23607592.962    23607592.8414   23607606.5834
     -1264.493        -985.319
  -1047382.647 9   -804345.05347  23149556.583    23149556.0014   23149568.9864
      2907.833        2265.844
   1001559.979 8    769590.61845  24466539.969    24466539.8344   24466555.7474
     -2849.177       -2220.138
   -409106.157 8   -295922.98445  24342609.515    24342608.7804   24342624.4394
      1734.588        1351.627
  -1090052.966 9   -827226.68647  21907676.640    21907676.8604   21907685.8084
      3033.125        2363.474
 80  4 13 21 36 10.0000000  0 10G19G18G16G31G27G03G02G01G10G13       0.000042155
   -348867.544 9   -265651.00349  20632920.468    20632920.2534   20632929.3194
       912.832         711.298
    362496.313 9    276930.10449  20477089.930    20477089.7024   20477098.3644
     -1087.535        -847.430
   1008760.295 8    764213.81645  24573985.140    24573984.6564   24574001.8914
     -2754.912       -2146.685
   -376875.670 9   -287791.66148  21625925.867    21625925.4824   21625935.6284
       908.450         707.883
   -877485.780 9   -667190.79748  21797239.742    21797239.4484   21797249.4044
      2407.140        1875.694
    425821.601 9    325378.15046  23610003.069    23610002.9534   23610016.7144
     -1268.748        -988.635
  -1076452.796 9   -826997.07647  23144024.712    23144024.1244   23144037.0974
      2906.056        2264.459
   1030052.621 8    791792.59945  24471961.989    24471961.8414   24471977.7774
     -2849.610       -2220.475
   -426430.057 8   -309422.08945  24339312.870    24339312.1134   24339327.8344
      1729.933        1348.000
  -1120373.809 9   -850853.29947  21901906.755    21901906.9844   21901915.9324
      3030.895        2361.736
 80  4 13 21 36 20.0000000  0 10G19G18G16G31G27G03G02G01G10G13       0.000038336
   -357985.698 9   -272756.05549  20631185.350    20631185.1314   20631194.1974
       911.034         709.897
    373399.884 9    285426.38749  20479164.823    20479164.5984   20479173.2734
     -1092.932        -851.635
   1036302.739 8    785675.35645  24579226.379    24579225.8774   24579243.0984
     -2753.371       -2145.484
   -385929.196 9   -294846.34248  21624203.064    21624202.6624   21624212.8214
       902.475         703.227
   -901553.710 9   -685945.01048  21792659.752    21792659.4864   21792669.4044
      2406.677        1875.333
    438533.579 9    335283.55646  23612422.082    23612421.9934   23612435.7454
     -1273.443        -992.293
  -1105500.945 9   -849631.95747  23138497.011    23138496.4284   23138509.4014
      2903.873        2262.758
   1058554.245 8    814001.56945  24477385.724    24477385.5634   24477401.5414
     -2850.432       -2221.116
   -443702.725 8   -322881.27845  24336025.961    24336025.2434   24336040.9924
      1724.865        1344.051
  -1150667.238 9   -874458.53648  21896142.112    21896142.3264   21896151.2724
      3028.108        2359.565
 80  4 13 21 36 30.0000000  0 10G19G18G16G31G27G03G02G01G10G13       0.000034513
   -367080.825 9   -279843.16749  20629454.614    20629454.3874   20629463.4444
       908.775         708.136
    384362.445 9    293968.62649  20481250.948    20481250.7144   20481259.3894
     -1098.730        -856.153
   1063834.229 8    807128.35845  24584465.537    24584465.0074   24584482.2434
     -2752.173       -2144.550
   -394919.153 9   -301851.49648  21622492.330    21622491.9234   21622502.0914
       896.256         698.381
   -925612.154 9   -704691.83648  21788081.593    21788081.3064   21788091.2244
      2405.820        1874.665
    451296.971 9    345229.00946  23614850.908    23614850.7574   23614864.5664
     -1278.424        -996.175
  -1134523.323 9   -872246.74447  23132974.215    23132973.6334   23132986.6094
      2901.420        2260.847
   1087068.708 8    836220.54745  24482811.874    24482811.7234   24482827.7514
     -2851.598       -2222.024
   -460920.802 8   -336297.93845  24332749.471    24332748.7184   24332764.5324
      1719.563        1339.919
  -1180927.882 9   -898038.23548  21890383.685    21890383.9034   21890392.8434
      3024.904        2357.068
 80  4 13 21 36 40.0000000  0 10G19G18G16G31G27G03G02G01G10G13       0.000030681
   -376157.949 9   -286916.24949  20627727.286    20627727.0724   20627736.1384
       906.505         706.368
    395377.290 9    302551.61049  20483347.019    20483346.7754   20483355.4604
     -1104.304        -860.497
   1091349.195 8    828568.47345  24589701.532    24589701.0094   24589718.2384
     -2750.990       -2143.629
   -403851.849 9   -308812.02848  21620792.517    21620792.1074   21620802.2684
       890.174         693.642
   -949667.174 9   -723435.99448  21783504.063    21783503.7944   21783513.6974
      2405.074        1874.084
    464105.472 9    355209.64246  23617288.305    23617288.1304   23617301.9754
     -1283.356       -1000.018
  -1163526.778 9   -894846.80947  23127455.025    23127454.4264   23127467.4054
      2899.162        2259.087
   1115589.531 8    858444.46745  24488239.267    24488239.0984   24488255.1744
     -2852.639       -2222.836
   -478092.311 8   -349678.30745  24329481.823    24329481.0384   24329496.8694
      1714.587        1336.042
  -1211161.915 9   -921597.19848  21884630.318    21884630.5364   21884639.4944
      3021.891        2354.720
 80  4 13 21 36 50.0000000  0 10G19G18G16G31G27G03G02G01G10G13       0.000026840
   -385214.753 9   -293973.49449  20626003.855    20626003.6194   20626012.6784
       904.776         705.020
    406443.342 9    311174.49849  20485452.832    20485452.5874   20485461.2734
     -1108.946        -864.114
   1118849.699 9    849997.35745  24594934.774    24594934.2274   24594951.4594
     -2749.204       -2142.237
   -412726.660 9   -315727.45848  21619103.692    21619103.2794   21619113.4384
       884.723         689.394
   -973717.891 9   -742176.79748  21778927.379    21778927.0884   21778936.9864
      2404.976        1874.007
    476960.175 9    365226.24446  23619734.486    23619734.3134   23619748.1524
     -1287.678       -1003.385
  -1192510.497 9   -917431.48547  23121939.574    23121938.9764   23121951.9594
      2897.504        2257.795
   1144117.516 8    880673.98845  24493668.035    24493667.8444   24493683.9234
     -2853.030       -2223.140
   -495216.615 8   -363021.89845  24326223.167    24326222.3604   24326238.1924
      1710.227        1332.644
  -1241368.474 9   -945134.74748  21878882.205    21878882.4034   21878891.3604
      3019.455        2352.822
 80  4 13 21 37  0.0000000  0 10G19G18G16G31G27G03G02G01G10G13       0.000022995
   -394248.456 9   -301012.74249  20624284.809    20624284.5624   20624293.6294
       902.290         703.083
    417561.550 9    319838.02149  20487568.565    20487568.3274   20487577.0184
     -1114.340        -868.317
   1146339.489 8    871417.89545  24600165.977    24600165.4184   24600182.6454
     -2748.417       -2141.624
   -421541.231 9   -322595.94248  21617426.350    21617425.9304   21617436.0824
       878.467         684.520
   -997760.422 9   -760911.22548  21774352.219    21774351.9484   21774361.8244
      2403.878        1873.152
    489865.020 9    375281.93946  23622190.227    23622190.0484   23622203.8934
     -1292.993       -1007.527
  -1221470.519 9   -939997.69447  23116428.639    23116428.0384   23116441.0314
      2894.887        2255.756
   1172656.484 8    902912.05645  24499098.880    24499098.6754   24499114.7734
     -2854.470       -2224.262
   -512290.144 8   -376325.92245  24322974.153    24322973.3974   24322989.2414
      1704.816        1328.428
  -1271544.428 9   -968648.45448  21873139.885    21873140.0924   21873149.0544
      3016.146        2350.244
 80  4 13 21 37 10.0000000  0 10G19G18G16G31G27G03G02G01G10G13       0.000019143
   -403261.643 9   -308036.00449  20622569.664    20622569.4204   20622578.4884
       900.099         701.376
    428728.735 9    328539.71249  20489693.625    20489693.3804   20489702.0734
     -1119.323        -872.200
   1173817.581 9    892829.29845  24605394.975    24605394.4254   24605411.5904
     -2747.408       -2140.837
   -430296.362 9   -329418.12048  21615760.321    21615759.8824   21615770.0354
       872.305         679.718
  -1021796.608 9   -779640.69848  21769778.290    21769778.0214   21769787.8784
      2403.136        1872.574
    502819.695 9    385376.44946  23624655.456    23624655.2444   23624669.1224
     -1298.167       -1011.559
  -1250408.874 9   -962547.02747  23110921.828    23110921.2274   23110934.2234
      2892.549        2253.934
   1201206.143 8    925158.45845  24504531.772    24504531.5484   24504547.6134
     -2855.719       -2225.236
   -529314.275 8   -389591.46945  24319734.566    24319733.8044   24319749.6594
      1699.728        1324.463
  -1301690.564 9   -992138.92648  21867403.269    21867403.4534   21867412.4154
      3012.930        2347.738
 80  4 13 21 37 20.0000000  0 10G19G18G16G31G27G03G02G01G10G13       0.000015290
   -412252.490 9   -315041.85649  20620858.776    20620858.5254   20620867.5984
       898.128         699.840
    439945.907 9    337280.35549  20491828.196    20491827.9404   20491836.6464
     -1124.058        -875.889
   1201284.619 9    914232.08145  24610621.854    24610621.2804   24610638.4404
     -2745.957       -2139.707
   -438989.733 9   -336192.15448  21614106.047    21614105.5924   21614115.7564
       866.382         675.103
  -1045825.673 9   -798364.63248  21765205.715    21765205.4304   21765215.2964
      2402.751        1872.274
    515825.860 9    395511.08446  23627130.481    23627130.2604   23627144.1394
     -1303.030       -1015.348
  -1279324.303 9   -985078.48547  23105419.386    23105418.7844   23105431.7644
      2890.637        2252.444
   1229768.162 8    947414.48845  24509966.988    24509966.7904   24509982.8164
     -2856.626       -2225.942
   -546286.593 8   -402816.63145  24316504.797    24316504.0384   24316519.9524
      1694.840        1320.655
  -1331804.346 9  -1015604.18148  21861672.803    21861672.9724   21861681.9394
      3009.949        2345.415
 80  4 13 21 37 30.0000000  0 10G19G18G16G31G27G03G02G01G10G13       0.000011436
   -421219.283 9   -322028.96849  20619152.465    20619152.2134   20619161.2764
       895.586         697.859
    451214.751 9    346061.25949  20493972.591    20493972.3414   20493981.0504
     -1129.292        -879.968
   1228740.605 8    935626.27045  24615846.628    24615846.0024   24615863.2584
     -2744.834       -2138.832
   -447619.129 9   -342916.35148  21612463.944    21612463.4874   21612473.6334
       859.871         670.029
  -1069847.176 9   -817082.66948  21760634.558    21760634.2814   21760644.1514
      2401.963        1871.659
    528885.567 9    405687.43846  23629615.681    23629615.4984   23629629.3364
     -1308.488       -1019.601
  -1308216.396 9  -1007591.77347  23099921.386    23099920.7844   23099933.7514
      2888.191        2250.538
   1258343.594 8    969680.95945  24515404.753    24515404.5364   24515420.5644
     -2858.105       -2227.095
   -563204.973 8   -415999.75445  24313285.322    24313284.5354   24313300.4944
      1689.237        1316.289
  -1361883.291 9  -1039042.29448  21855948.963    21855949.1254   21855958.0954
      3006.351        2342.611
 80  4 13 21 37 40.0000000  0 10G19G18G16G31G27G03G02G01G10G13       0.000007577
   -430167.062 9   -329001.25949  20617449.767    20617449.5134   20617458.5884
       893.447         696.192
    462528.703 9    354877.31349  20496125.583    20496125.3234   20496134.0364
     -1133.974        -883.616
   1256178.850 8    957006.63245  24621068.036    24621067.3874   24621084.6424
     -2743.330       -2137.660
   -456189.710 9   -349594.71548  21610833.026    21610832.5694   21610842.7224
       853.784         665.286
  -1093867.431 9   -835799.72848  21756063.662    21756063.3794   21756073.2434
      2401.621        1871.393
    541993.910 9    415901.70446  23632110.121    23632109.9454   23632123.7954
     -1313.617       -1023.598
  -1337091.251 9  -1030091.62647  23094426.678    23094426.0694   23094439.0264
      2886.343        2249.098
   1286927.121 8    991953.74345  24520844.064    24520843.8264   24520859.8704
     -2859.030       -2227.816
   -580074.546 8   -429144.86045  24310075.125    24310074.3234   24310090.3144
      1684.237        1312.392
  -1391932.915 9  -1062457.56048  21850230.689    21850230.8744   21850239.8244
      3003.193        2340.150
 80  4 13 21 37 50.0000000  0 10G19G18G16G31G27G03G02G01G10G13       0.000003713
   -439095.863 9   -335958.76849  20615750.684    20615750.4134   20615759.5034
       891.954         695.029
    473888.129 9    363728.80249  20498287.215    20498286.9614   20498295.6774
     -1138.229        -886.932
   1283600.192 8    978373.82445  24626286.223    24626285.5704   24626302.7674
     -2741.358       -2136.123
   -464701.250 9   -356227.06848  21609213.326    21609212.8774   21609223.0284
       848.182         660.921
  -1117886.166 9   -854515.61448  21751493.062    21751492.7754   21751502.6344
      2401.810        1871.540
    555150.880 9    426153.85146  23634613.838    23634613.6604   23634627.5044
     -1318.167       -1027.143
  -1365949.621 9  -1052578.63147  23088935.094    23088934.4844   23088947.4364
      2885.040        2248.083
   1315517.796 8   1014232.09845  24526284.718    24526284.4524   24526300.6084
     -2859.397       -2228.102
   -596896.217 8   -442252.63345  24306874.037    24306873.2504   24306889.2564
      1679.770        1308.912
  -1421952.359 9  -1085849.31248  21844518.181    21844518.3524   21844527.2974
      3000.455        2338.017
 80  4 13 21 38  0.0000000  0 10G19G18G16G31G27G03G02G01G10G13      -0.000000152
   -448002.219 9   -342898.78549  20614055.855    20614055.5874   20614064.6744
       889.797         693.348
    485297.364 9    372619.10549  20500458.342    20500458.0764   20500466.7874
     -1143.131        -890.751
   1311010.275 8    999732.22645  24631502.266    24631501.6164   24631518.7994
     -2740.186       -2135.210
   -473149.798 9   -362810.33948  21607605.628    21607605.1664   21607615.3244
       841.973         656.083
  -1141899.148 9   -873227.01248  21746923.523    21746923.2414   21746933.0974
      2401.256        1871.109
    568360.508 9    436447.03446  23637127.599    23637127.4104   23637141.2394
     -1323.320       -1031.158
  -1394787.935 9  -1075050.01147  23083447.332    23083446.7244   23083459.6454
      2883.103        2246.574
   1344118.763 8   1036518.46145  24531727.352    24531727.0484   24531743.2754
     -2860.360       -2228.852
   -613665.593 8   -455319.64845  24303682.923    24303682.1114   24303698.0874
      1674.601        1304.884
  -1451936.610 9  -1109213.63348  21838812.359    21838812.5294   21838821.4664
      2996.988        2335.315
 80  4 13 21 38  9.9990000  0 10G19G18G16G31G27G03G02G01G10G13      -0.000004017
   -456884.010 9   -349819.65749  20612365.717    20612365.4354   20612374.5284
       887.552         691.599
    496755.931 9    381547.84549  20502638.847    20502638.5734   20502647.3014
     -1147.909        -894.475
   1338408.019 8   1021081.08245  24636715.941    24636715.2944   24636732.4954
     -2739.015       -2134.297
   -481533.022 9   -369342.71148  21606010.355    21606009.8964   21606020.0584
       835.661         651.164
  -1165901.884 9   -891930.42948  21742355.955    21742355.6694   21742365.5424
      2400.635        1870.625
    581622.300 9    446780.85846  23639651.277    23639651.0764   23639664.9054
     -1328.450       -1035.156
  -1423601.790 9  -1097502.33747  23077964.252    23077963.6164   23077976.5174
      2881.140        2245.044
   1372729.429 8   1058812.39145  24537171.855    24537171.5094   24537187.8104
     -2861.452       -2229.703
   -630379.176 8   -468343.20445  24300502.421    24300501.6164   24300517.5824
      1669.375        1300.812
  -1481881.805 9  -1132547.53248  21833113.969    21833114.1384   21833123.0634
      2993.629        2332.698
 80  4 13 21 38 19.9990000  0 10G19G18G16G31G27G03G02G01G10G13      -0.000007884
   -465744.205 9   -356723.70449  20610679.673    20610679.4014   20610688.4844
       885.246         689.802
    508264.184 9    390515.30349  20504828.813    20504828.5324   20504837.2564
     -1152.993        -898.436
   1365796.113 8   1042422.38345  24641927.827    24641927.2034   24641944.3714
     -2737.882       -2133.415
   -489853.117 9   -375825.88948  21604427.110    21604426.6344   21604436.8024
       829.073         646.031
  -1189900.663 9   -910630.75748  21737789.153    21737788.8434   21737798.7194
      2399.884        1870.039
    594936.063 9    457155.17846  23642184.837    23642184.6204   23642198.4594
     -1333.565       -1039.142
  -1452398.782 9  -1119941.51647  23072484.360    23072483.7114   23072496.6064
      2879.048        2243.414
   1401353.874 8   1081117.06345  24542618.980    24542618.6194   24542634.9384
     -2862.675       -2230.656
   -647041.973 8   -481327.17245  24297331.597    24297330.7904   24297346.7554
      1663.939        1296.576
  -1511796.133 9  -1155857.36748  21827421.439    21827421.6074   21827430.5544
      2990.064        2329.920
 80  4 13 21 38 29.9990000  0 10G19G18G16G31G27G03G02G01G10G13      -0.000011755
   -474586.746 9   -363613.99449  20608997.004    20608996.7304   20609005.8114
       883.131         688.154
    519818.958 9    399519.01049  20507027.624    20507027.3474   20507036.0704
     -1158.093        -902.410
   1393169.004 8   1063751.79745  24647136.803    24647136.2174   24647153.3764
     -2736.856       -2132.615
   -498111.558 9   -382261.01948  21602855.602    21602855.1094   21602865.2704
       822.469         640.885
  -1213896.465 9   -929328.76848  21733222.883    21733222.5884   21733232.4684
      2399.152        1869.469
    608296.158 9    467565.60646  23644727.224    23644726.9914   23644740.8234
     -1338.542       -1043.020
  -1481179.570 9  -1142368.07947  23067007.553    23067006.8984   23067019.7674
      2876.963        2241.789
   1429985.766 8   1103427.53845  24548067.512    24548067.1614   24548083.4834
     -2863.939       -2231.641
   -663655.078 8   -494272.42345  24294170.254    24294169.4304   24294185.4024
      1658.505        1292.342
  -1541678.749 9  -1179142.49448  21821734.959    21821735.1174   21821744.0624
      2986.428        2327.087
 80  4 13 21 38 39.9990000  0 10G19G18G16G31G27G03G02G01G10G13      -0.000015628
   -483410.857 9   -370489.92249  20607317.839    20607317.5614   20607326.6374
       881.468         686.858
    531421.928 9    408560.27549  20509235.613    20509235.3264   20509244.0534
     -1162.728        -906.022
   1420528.981 8   1085071.16745  24652343.305    24652342.7844   24652359.9014
     -2735.424       -2131.499
   -506306.334 9   -388646.54748  21601296.178    21601295.7054   21601305.8554
       816.224         636.019
  -1237888.036 9   -948023.48348  21728657.440    21728657.1524   21728667.0144
      2398.902        1869.274
    621703.769 9    478013.06446  23647278.621    23647278.4134   23647292.2434
     -1343.200       -1046.649
  -1509941.278 9  -1164779.76047  23061534.352    23061533.7014   23061546.5754
      2875.116        2240.350
   1458628.285 8   1125746.30045  24553518.069    24553517.7374   24553534.0794
     -2864.888       -2232.380
   -680216.495 8   -507177.40145  24291018.737    24291017.8484   24291033.8534
      1653.492        1288.435
  -1571527.637 9  -1202401.34048  21816054.892    21816055.0554   21816064.0114
      2983.207        2324.577
 80  4 13 21 38 49.9990000  0 10G19G18G16G31G27G03G02G01G10G13      -0.000019499
   -492213.865 9   -377349.40949  20605642.700    20605642.4164   20605651.4884
       879.200         685.091
    543076.298 9    417641.58749  20511453.392    20511453.0984   20511461.8274
     -1168.072        -910.186
   1447879.219 8   1106382.92045  24657547.932    24657547.4544   24657564.5874
     -2734.525       -2130.799
   -514433.443 9   -394979.34948  21599749.641    21599749.1744   21599759.3114
       809.239         630.576
  -1261871.620 9   -966711.97748  21724093.518    21724093.2054   21724103.0824
      2397.871        1868.471
    635162.743 9    488500.52846  23649839.821    23649839.6164   23649853.4514
     -1348.492       -1050.773
  -1538679.445 9  -1187173.11747  23056065.649    23056064.9964   23056077.8434
      2872.561        2238.359
   1487285.605 8   1148076.58345  24558971.438    24558971.1094   24558987.4834
     -2866.537       -2233.665
   -696722.643 8   -520039.30245  24287877.712    24287876.8254   24287892.8334
      1647.777        1283.982
  -1601339.696 9  -1225631.49548  21810381.841    21810381.9974   21810390.9334
      2979.363        2321.582
 80  4 13 21 38 59.9990000  0 10G19G18G16G31G27G03G02G01G10G13      -0.000023371
   -500998.795 9   -384194.80849  20603970.983    20603970.6894   20603979.7574
       878.333         684.415
    554780.016 9    426761.35649  20513680.544    20513680.2574   20513688.9864
     -1172.167        -913.377
   1475215.920 8   1127684.12445  24662749.994    24662749.4924   24662766.6344
     -2732.187       -2128.977
   -522494.558 9   -401260.72548  21598215.670    21598215.1844   21598225.3464
       803.530         626.127
  -1285849.255 9   -985395.83348  21719530.727    21719530.4074   21719540.2894
      2398.219        1868.742
    648670.096 9    499025.69346  23652410.221    23652410.0124   23652423.8684
     -1352.377       -1053.800
  -1567396.075 9  -1209549.68147  23050601.058    23050600.3794   23050613.2254
      2871.302        2237.378
   1515954.870 8   1170416.16545  24564427.082    24564426.7004   24564443.1684
     -2866.775       -2233.851
   -713175.192 8   -532859.44045  24284746.864    24284745.9644   24284762.0354
      1643.294        1280.489
  -1631117.242 9  -1248834.75248  21804715.352    21804715.5064   21804724.4354
      2976.803        2319.587
 80  4 13 21 39  9.9990000  0 10G19G18G16G31G27G03G02G01G10G13      -0.000027244
   -509768.942 9   -391028.68249  20602302.067    20602301.7784   20602310.8504
       875.781         682.427
    566531.897 9    435918.65749  20515916.876    20515916.5804   20515925.3194
     -1178.152        -918.041
   1502535.160 8   1148971.73345  24667948.753    24667948.1984   24667965.4244
     -2731.455       -2128.406
   -530491.218 9   -407491.87148  21596693.947    21596693.4694   21596703.6224
       795.914         620.193
  -1309823.151 9  -1004076.76448  21714968.646    21714968.3224   21714978.2014
      2396.711        1867.567
    662222.797 9    509586.20646  23654989.253    23654989.0384   23655002.8724
     -1358.076       -1058.241
  -1596092.954 9  -1231910.84047  23045140.206    23045139.5324   23045152.3504
      2868.201        2234.962
   1544632.975 8   1192762.63445  24569884.417    24569883.9724   24569900.5234
     -2868.735       -2235.378
   -729575.659 8   -545639.00145  24281625.990    24281625.0604   24281641.1004
      1636.971        1275.562
  -1660862.212 9  -1272012.62148  21799055.056    21799055.2084   21799064.1424
      2972.387        2316.146
 80  4 13 21 39 19.9990000  0 10G19G18G16G31G27G03G02G01G10G13      -0.000031116
   -518519.203 9   -397847.06949  20600636.959    20600636.6694   20600645.7294
       874.342         681.305
    578338.321 9    445118.45149  20518163.574    20518163.2864   20518172.0134
     -1183.062        -921.866
   1529840.219 8   1170248.28645  24673144.791    24673144.1614   24673161.5444
     -2729.393       -2126.800
   -538417.983 9   -413668.56848  21595185.546    21595185.0664   21595195.1994
       789.566         615.246
  -1333789.522 9  -1022751.84548  21710408.005    21710407.6754   21710417.5444
      2396.684        1867.546
    675825.862 9    520185.95246  23657577.864    23657577.6634   23657591.4714
     -1362.459       -1061.656
  -1624765.399 9  -1254252.99247  23039684.005    23039683.3154   23039696.1314
      2866.432        2233.583
   1573324.665 8   1215119.69045  24575344.314    24575343.9084   24575360.3984
     -2869.476       -2235.955
   -745919.932 8   -558374.78345  24278515.779    24278514.8654   24278530.8764
      1632.003        1271.691
  -1690569.205 9  -1295160.90648  21793401.988    21793402.1424   21793411.0644
      2969.201        2313.663
 80  4 13 21 39 29.9990000  0 10G19G18G16G31G27G03G02G01G10G13      -0.000034991
   -527253.951 9   -404653.36149  20598974.796    20598974.5014   20598983.5764
       872.182         679.622
    590195.300 9    454357.64449  20520419.903    20520419.6074   20520428.3354
     -1188.757        -926.304
   1557124.605 7   1191508.72945  24678336.891    24678336.2804   24678353.7264
     -2727.883       -2125.623
   -546280.912 9   -419795.50748  21593689.283    21593688.7964   21593698.9494
       782.638         609.848
  -1357755.118 9  -1041426.31348  21705847.495    21705847.1664   21705857.0394
      2396.030        1867.036
    689473.174 9    530820.17646  23660174.919    23660174.7124   23660188.5174
     -1367.395       -1065.503
  -1653418.918 9  -1276580.37947  23034231.411    23034230.7264   23034243.5114
      2863.895        2231.606
   1602024.379 8   1237483.00245  24580805.787    24580805.3854   24580821.8524
     -2870.846       -2237.023
   -762213.725 8   -571071.21345  24275415.219    24275414.2594   24275430.3104
      1626.347        1267.283
  -1720243.438 9  -1318283.65448  21787755.162    21787755.3174   21787764.2334
      2965.388        2310.692
 80  4 13 21 39 39.9990000  0 10G19G18G16G31G27G03G02G01G10G13      -0.000038867
   -535966.348 9   -411442.24149  20597316.884    20597316.5854   20597325.6624
       870.579         678.373
    602110.627 9    463642.30349  20522687.325    20522687.0294   20522695.7604
     -1194.055        -930.432
   1584393.992 7   1212757.48345  24683526.144    24683525.5904   24683543.0954
     -2725.691       -2123.915
   -554073.843 9   -425867.91148  21592206.346    21592205.8504   21592215.9974
       776.234         604.858
  -1381712.742 9  -1060094.57748  21701288.516    21701288.1814   21701298.0524
      2395.798        1866.856
    703170.308 9    541493.22846  23662781.448    23662781.2364   23662795.0344
     -1371.714       -1068.868
  -1682046.969 9  -1298887.91847  23028783.650    23028782.9754   23028795.7334
      2861.949        2230.090
   1630739.019 8   1259857.95745  24586270.075    24586269.6684   24586286.1184
     -2871.829       -2237.789
   -778450.414 8   -583723.15245  24272325.449    24272324.5024   24272340.5624
      1621.235        1263.300
  -1749879.310 9  -1341376.51748  21782115.624    21782115.7894   21782124.6904
      2962.134        2308.156
 80  4 13 21 39 49.9990000  0  9G19G18G16G31G27G03G02G10G13         -0.000042757
   -544656.896 9   -418214.09449  20595663.139    20595662.8444   20595671.9044
       867.664         676.102
    614084.857 9    472972.86049  20524965.971    20524965.6654   20524974.3984
     -1200.674        -935.590
   1611648.169 7   1233994.37245  24688712.503    24688711.9594   24688729.5524
     -2725.013       -2123.387
   -561797.062 9   -431885.99148  21590736.675    21590736.1654   21590746.3264
       768.551         598.871
  -1405662.160 9  -1078756.44148  21696731.103    21696730.7484   21696740.6214
      2394.224        1865.629
    716916.179 9    552204.24446  23665397.229    23665397.0104   23665410.8004
     -1377.318       -1073.235
  -1710649.492 9  -1321175.56647  23023340.755    23023340.0584   23023352.8244
      2858.736        2227.586
   -794630.310 8   -596330.84145  24269246.533    24269245.5904   24269261.6434
      1614.908        1258.370
  -1779476.969 9  -1364439.60248  21776483.378    21776483.5394   21776492.4274
      2957.644        2304.658
 80  4 13 21 39 59.9990000  0  9G19G18G16G31G27G03G02G10G13         -0.000046638
   -553330.458 9   -424972.71149  20594012.626    20594012.3304   20594021.3794
       866.725         675.370
    626114.502 9    482346.59449  20527255.151    20527254.8524   20527263.5814
     -1205.534        -939.377
   1638884.416 7   1255217.29945  24693895.369    24693894.8674   24693912.6094
     -2722.479       -2121.412
   -569454.314 9   -437852.66648  21589279.536    21589279.0454   21589289.1894
       762.618         594.248
  -1429607.222 9  -1097414.91448  21692174.506    21692174.1494   21692184.0184
      2394.514        1865.855
    730705.698 9    562949.29246  23668021.332    23668021.0934   23668034.8824
     -1380.916       -1076.038
  -1739231.021 9  -1343446.85747  23017901.850    23017901.1714   23017913.8934
      2857.275        2226.448
   -810758.343 8   -608898.11345  24266177.413    24266176.4864   24266192.5234
      1610.402        1254.859
  -1809040.764 9  -1387476.30248  21770857.568    21770857.7074   21770866.5974
      2954.934        2302.546
 80  4 13 21 40  9.9990000  0  9G19G18G16G31G27G03G02G10G13         -0.000050521
   -561987.122 9   -431718.15949  20592365.332    20592365.0284   20592374.0814
       864.472         673.615
    638199.872 9    491763.75149  20529554.937    20529554.6354   20529563.3634
     -1211.650        -944.143
   1666102.773 8   1276426.28145  24699074.930    24699074.3814   24699092.2064
     -2721.254       -2120.458
   -577044.899 9   -443767.40048  21587835.105    21587834.5924   21587844.7554
       755.417         588.637
  -1453547.553 9  -1116069.70148  21687618.812    21687618.4574   21687628.3214
      2393.446        1865.023
    744538.730 9    573728.22946  23670653.714    23670653.4284   23670667.2864
     -1385.825       -1079.864
  -1767789.676 9  -1365700.32747  23012467.298    23012466.6174   23012479.3324
      2854.333        2224.156
   -826833.813 8   -621424.42745  24263118.369    24263117.3914   24263133.4334
      1604.566        1250.311
  -1838570.457 9  -1410486.42348  21765238.242    21765238.3944   21765247.2604
      2951.000        2299.481
 80  4 13 21 40 19.9990000  0  9G19G18G16G31G27G03G02G10G13         -0.000054408
   -570627.007 9   -438450.53649  20590721.226    20590720.9224   20590729.9714
       863.343         672.735
    650340.176 9    501223.71449  20531865.184    20531864.8724   20531873.6074
     -1216.573        -947.979
   1693302.189 8   1297620.51245  24704250.834    24704250.2894   24704268.1974
     -2718.730       -2118.491
   -584569.429 9   -449630.65748  21586403.234    21586402.7214   21586412.8694
       749.311         583.879
  -1477483.119 9  -1134720.77448  21683064.025    21683063.6564   21683073.5304
      2393.510        1865.073
    758414.901 9    584540.78746  23673294.279    23673294.0004   23673307.8954
     -1389.580       -1082.790
  -1796324.077 9  -1387934.89747  23007037.383    23007036.6934   23007049.4004
      2852.404        2222.652
   -842856.446 8   -633909.58545  24260069.372    24260068.3784   24260084.4404
      1599.824        1246.616
  -1868066.968 9  -1433470.69548  21759625.232    21759625.3734   21759634.2374
      2948.268        2297.352
 80  4 13 21 40 29.9990000  0  9G19G18G16G31G27G03G02G10G13         -0.000058296
   -579247.506 9   -445167.80649  20589080.816    20589080.5124   20589089.5504
       861.403         671.223
    662538.679 9    510729.02649  20534186.495    20534186.1854   20534194.9194
     -1222.493        -952.592
   1720484.887 8   1318801.70945  24709423.589    24709423.0204   24709440.9904
     -2717.130       -2117.244
   -592023.808 9   -455439.25348  21584984.709    21584984.2024   21584994.3514
       742.230         578.361
  -1501410.676 9  -1153365.60448  21678510.767    21678510.3834   21678520.2584
      2392.633        1864.389
    772336.871 9    595389.03246  23675943.587    23675943.3154   23675957.2034
     -1394.258       -1086.435
  -1824830.221 9  -1410147.44847  23001612.831    23001612.1364   23001624.8304
      2849.507        2220.395
   -858822.578 8   -646350.71645  24257031.146    24257030.0994   24257046.1744
      1594.085        1242.144
  -1897527.294 9  -1456426.77248  21754019.110    21754019.2384   21754028.1074
      2944.493        2294.410
 80  4 13 21 40 39.9990000  0  9G19G18G16G31G27G03G02G10G13         -0.000062185
   -587852.757 9   -451873.19149  20587443.302    20587442.9934   20587452.0244
       859.451         669.702
    674793.514 9    520278.24049  20536518.527    20536518.2144   20536526.9554
     -1228.648        -957.388
   1747649.285 8   1339968.66545  24714592.871    24714592.3574   24714610.2914
     -2715.926       -2116.306
   -599411.348 9   -461195.75848  21583578.904    21583578.3864   21583588.5464
       735.089         572.797
  -1525333.056 9  -1172006.40348  21673958.468    21673958.0994   21673967.9734
      2391.670        1863.639
    786302.819 9    606271.54446  23678601.254    23678600.9934   23678614.8704
     -1399.151       -1090.247
  -1853310.952 9  -1432340.19047  22996193.110    22996192.4234   22996205.1094
      2846.415        2217.986
   -874735.211 8   -658750.14945  24254003.094    24254002.0404   24254018.0704
      1588.282        1237.622
  -1926952.468 9  -1479355.44748  21748419.670    21748419.7984   21748428.6614
      2940.426        2291.241
 80  4 13 21 40 49.9990000  0  9G19G18G16G31G27G03G02G10G13         -0.000066075
   -596441.627 9   -458565.81349  20585808.906    20585808.5824   20585817.6244
       857.729         668.360
    687104.490 9    529871.19448  20538861.249    20538860.9314   20538869.6754
     -1234.128        -961.658
   1774796.617 8   1361122.32345  24719758.908    24719758.4164   24719776.3994
     -2714.167       -2114.935
   -606731.958 9   -466900.12748  21582185.837    21582185.3214   21582195.4694
       728.459         567.630
  -1549249.980 9  -1190642.94948  21669407.224    21669406.8474   21669416.7234
      2391.116        1863.207
    800314.318 9    617189.54746  23681267.601    23681267.3354   23681281.2234
     -1403.768       -1093.845
  -1881764.590 9  -1454511.82847  22990778.551    22990777.8504   22990790.5334
      2843.741        2215.902
   -890594.105 8   -671107.70345  24250985.208    24250984.1894   24251000.1954
      1582.920        1233.444
  -1956341.305 9  -1502255.81548  21742827.142    21742827.2834   21742836.1384
      2936.836        2288.444
 80  4 13 21 40 59.9990000  0  9G19G18G16G31G27G03G02G10G13         -0.000069966
   -605014.365 9   -465245.86749  20584177.572    20584177.2504   20584186.2764
       856.005         667.017
    699469.525 9    539506.27549  20541214.256    20541213.9344   20541222.6744
     -1239.651        -965.962
   1801924.779 8   1382261.03945  24724921.333    24724920.8194   24724938.8394
     -2712.332       -2113.505
   -613987.208 9   -472553.55348  21580805.212    21580804.6834   21580814.8394
       721.817         562.455
  -1573161.611 9  -1209275.36548  21664856.978    21664856.6064   21664866.4754
      2390.428        1862.671
    814371.181 9    628142.90546  23683942.570    23683942.2884   23683956.1954
     -1408.433       -1097.480
  -1910193.097 9  -1476663.88647  22985368.767    22985368.0784   22985380.7364
      2841.231        2213.946
   -906401.615 8   -683425.22445  24247977.057    24247976.1074   24247992.1034
      1577.737        1229.405
  -1985695.237 9  -1525128.98148  21737241.258    21737241.3944   21737250.2514
      2933.284        2285.676
 80  4 13 21 41  9.9990000  0  9G19G18G16G31G27G03G02G10G13         -0.000073859
   -613569.444 9   -471912.16349  20582549.584    20582549.2634   20582558.2884
       854.770         666.055
    711890.240 9    549184.73849  20543577.855    20543577.5264   20543586.2714
     -1244.680        -969.881
   1829035.311 8   1403386.03145  24730080.392    24730079.8664   24730097.8874
     -2710.027       -2111.709
   -621175.801 9   -478155.04748  21579437.268    21579436.7374   21579446.8934
       715.701         557.689
  -1597066.337 9  -1227902.40848  21660308.054    21660307.6864   21660317.5544
      2390.382        1862.635
    828474.716 9    639132.62346  23686626.425    23686626.1584   23686640.0554
     -1412.525       -1100.669
  -1938596.916 9  -1498796.69747  22979963.702    22979963.0094   22979975.6334
      2839.317        2212.455
   -922156.691 8   -695701.88845  24244978.999    24244978.0244   24244993.9904
      1573.072        1225.770
  -2015013.364 9  -1547974.25448  21731662.205    21731662.3194   21731671.1824
      2930.244        2283.307
 80  4 13 21 41 19.9990000  0  9G19G18G16G31G27G03G02G10G13         -0.000077752
   -622103.097 9   -478561.75949  20580925.699    20580925.3814   20580934.3934
       852.538         664.315
    724368.657 9    558908.16249  20545952.428    20545952.0984   20545960.8584
     -1250.371        -974.315
   1856132.005 8   1424500.24445  24735236.812    24735236.2504   24735254.2854
     -2708.738       -2110.705
   -628295.193 9   -483702.61748  21578082.485    21578081.9574   21578092.1104
       708.806         552.316
  -1620962.891 9  -1246523.08148  21655760.683    21655760.3164   21655770.1804
      2389.568        1862.001
    842627.956 9    650161.07946  23689319.731    23689319.4694   23689333.3674
     -1417.523       -1104.563
  -1966973.331 9  -1520908.16147  22974563.827    22974563.1284   22974575.7764
      2836.596        2210.334
   -937855.896 8   -707935.02245  24241991.544    24241990.6014   24242006.5524
      1567.455        1221.394
  -2044292.552 9  -1570789.17848  21726090.550    21726090.6704   21726099.5114
      2926.318        2280.248
 80  4 13 21 41 29.9990000  0  9G19G18G16G31G27G03G02G10G13         -0.000081645
   -630615.737 9   -485194.98249  20579305.808    20579305.4704   20579314.4944
       851.122         663.212
    736902.009 9    568674.39749  20548337.457    20548337.1314   20548345.8924
     -1255.164        -978.050
   1883214.339 8   1445603.25645  24740390.510    24740389.8914   24740407.9874
     -2706.671       -2109.094
   -635347.834 9   -489198.17548  21576740.388    21576739.8844   21576750.0404
       702.862         547.685
  -1644853.231 9  -1265138.91148  21651214.500    21651214.1214   21651223.9834
      2389.652        1862.066
    856829.876 9    661227.46646  23692022.333    23692022.0294   23692035.9244
     -1421.670       -1107.795
  -1995324.570 9  -1543000.00047  22969168.751    22969168.0424   22969180.7024
      2834.823        2208.953
   -953501.395 8   -720126.30245  24239014.288    24239013.3624   24239029.3264
      1562.714        1217.699
  -2073534.588 9  -1593575.15048  21720525.957    21720526.0774   21720534.9134
      2923.329        2277.919
 80  4 13 21 41 39.9990000  0  8G19G18G31G27G03G02G10G13            -0.000085566
   -639111.301 9   -491814.89749  20577689.148    20577688.8344   20577697.8504
       848.998         661.557
    749486.882 9    578480.77948  20550732.290    20550731.9604   20550740.7264
     -1260.810        -982.449
   -642337.604 9   -494644.74248  21575410.301    21575409.7884   21575419.9214
       696.071         542.393
  -1668740.560 9  -1283752.40248  21646668.886    21646668.5004   21646678.3644
      2388.760        1861.371
    871076.163 9    672328.42846  23694733.338    23694733.0514   23694746.9414
     -1426.559       -1111.604
  -2023654.565 9  -1565075.29847  22963777.727    22963777.0234   22963789.6534
      2832.173        2206.888
   -969096.219 8   -732278.09845  24236046.621    24236045.7164   24236061.7334
      1557.195        1213.399
  -2102743.384 9  -1616335.22948  21714967.699    21714967.8034   21714976.6504
      2919.514        2274.946
 80  4 13 21 41 49.9990000  0  8G19G18G31G27G03G02G10G13            -0.000089450
   -647588.436 9   -498420.45649  20576076.017    20576075.6924   20576084.7074
       846.832         659.869
    762124.848 9    588328.53048  20553137.234    20553136.8924   20553145.6694
     -1266.361        -986.775
   -649261.519 9   -500039.98748  21574092.707    21574092.1934   21574102.3414
       689.128         536.983
  -1692620.909 9  -1302360.44848  21642124.608    21642124.2224   21642134.0654
      2387.741        1860.577
    885368.147 9    683465.00146  23697453.068    23697452.8054   23697466.6474
     -1431.407       -1115.382
  -2051960.424 9  -1587131.78547  22958391.284    22958390.5784   22958403.2114
      2829.461        2204.775
   -984637.170 8   -744387.91445  24233089.222    24233088.2854   24233104.3404
      1551.468        1208.936
  -2131916.985 9  -1639067.88148  21709416.126    21709416.2464   21709425.0744
      2915.697        2271.972
 80  4 13 21 41 59.9990000  0  8G19G18G31G27G03G02G10G13            -0.000093335
   -656048.701 9   -505012.86549  20574466.095    20574465.7564   20574474.7644
       845.411         658.762
    774813.934 9    598216.11849  20555551.895    20555551.5634   20555560.3454
     -1271.204        -990.549
   -656120.262 9   -505384.45248  21572787.531    21572787.0264   21572797.1764
       682.875         532.110
  -1716495.124 9  -1320963.71448  21637581.482    21637581.0974   21637590.9514
      2387.376        1860.293
    899704.248 9    694635.93846  23700181.191    23700180.9114   23700194.7314
     -1435.617       -1118.663
  -2080243.236 9  -1609170.30547  22953009.254    22953008.5314   22953021.1474
      2827.350        2203.130
  -1000125.027 8   -756456.35845  24230142.016    24230141.0044   24230157.0334
      1546.377        1204.969
  -2161055.697 9  -1661773.34048  21703871.205    21703871.3184   21703880.1444
      2912.394        2269.398
 80  4 13 21 42  9.9990000  0  8G19G18G31G27G03G02G10G13            -0.000097222
   -664492.218 9   -511592.22649  20572859.347    20572859.0094   20572868.0244
       843.365         657.168
    787553.169 9    608142.77949  20557976.107    20557975.7664   20557984.5544
     -1276.508        -994.682
   -662914.551 9   -510678.69748  21571494.626    21571494.0974   21571504.2524
       676.099         526.830
  -1740363.671 9  -1339562.56248  21633039.446    21633039.0594   21633048.8974
      2386.400        1859.532
    914085.266 9    705841.89046  23702917.858    23702917.5364   23702931.3744
     -1440.541       -1122.499
  -2108502.939 9  -1631190.81647  22947631.578    22947630.8724   22947643.4744
      2824.654        2201.029
  -1015560.186 8   -768483.75945  24227204.815    24227203.8274   24227219.7934
      1540.775        1200.604
  -2190159.868 9  -1684451.89348  21698332.843    21698332.9604   21698341.7854
      2908.587        2266.431
 80  4 13 21 42 19.9990000  0  8G19G18G31G27G03G02G10G13            -0.000101109
   -672918.494 9   -518158.15049  20571255.894    20571255.5584   20571264.5604
       841.746         655.906
    800341.355 9    618107.58648  20560409.635    20560409.2924   20560418.0884
     -1281.219        -998.352
   -669645.044 9   -515923.22648  21570213.854    21570213.3334   21570223.4774
       669.938         522.030
  -1764226.165 9  -1358156.69748  21628498.568    21628498.1714   21628508.0004
      2385.979        1859.204
    928512.385 9    717083.74546  23705663.283    23705662.9714   23705676.7764
     -1444.996       -1125.971
  -2136738.842 9  -1653192.78847  22942258.463    22942257.7474   22942270.3394
      2822.453        2199.314
  -1030942.830 8   -780470.20145  24224277.584    24224276.6154   24224292.5214
      1535.649        1196.610
  -2219229.717 9  -1707103.69648  21692801.018    21692801.1344   21692809.9494
      2905.382        2263.934
 80  4 13 21 42 29.9990000  0  8G19G18G31G27G03G02G10G13            -0.000104995
   -681320.666 9   -524705.29449  20569657.017    20569656.6794   20569665.6854
       839.257         653.966
    813184.287 9    628115.05148  20562853.572    20562853.2284   20562862.0254
     -1286.796       -1002.698
   -676306.726 9   -521114.13748  21568946.168    21568945.6434   21568955.8034
       662.975         516.604
  -1788076.722 9  -1376741.52548  21623959.956    21623959.5574   21623969.3744
      2384.749        1858.246
    942992.284 9    728366.75246  23708418.765    23708418.4614   23708432.2474
     -1450.362       -1130.152
  -2164944.822 9  -1675171.44247  22936891.004    22936890.3044   22936902.8854
      2819.382        2196.921
  -1046266.366 8   -792410.59145  24221361.584    24221360.6074   24221376.5414
      1529.709        1191.981
  -2248259.505 9  -1729724.28548  21687276.824    21687276.9394   21687285.7434
      2901.253        2260.717
 80  4 13 21 42 39.9990000  0  8G19G18G31G27G03G02G10G13            -0.000108880
   -689701.319 9   -531235.67249  20568062.244    20568061.8984   20568070.8974
       837.392         652.513
    826079.479 9    638163.23649  20565307.460    20565307.1064   20565315.9234
     -1291.669       -1006.495
   -682901.463 9   -526252.89048  21567691.219    21567690.6994   21567700.8534
       656.553         511.600
  -1811918.183 9  -1395319.27148  21619423.079    21619422.6744   21619432.4804
      2384.088        1857.731
    957522.285 9    739688.78946  23711183.776    23711183.4324   23711197.2324
     -1455.114       -1133.855
  -2193124.051 9  -1697129.24847  22931528.670    22931527.9484   22931540.5164
      2817.036        2195.093
  -1061534.244 8   -804307.62245  24218456.157    24218455.1774   24218471.1614
      1524.442        1187.877
  -2277251.058 9  -1752315.08448  21681759.890    21681760.0114   21681768.8094
      2897.661        2257.918
 80  4 13 21 42 49.9990000  0  8G19G18G31G27G03G02G10G13            -0.000112767
   -698062.384 9   -537750.78049  20566471.190    20566470.8514   20566479.8454
       835.237         650.834
    839023.450 9    648249.43649  20567770.627    20567770.2854   20567779.0934
     -1296.654       -1010.380
   -689432.049 9   -531341.64948  21566448.509    21566447.9844   21566458.1254
       650.033         506.519
  -1835752.790 9  -1413891.67548  21614887.494    21614887.1024   21614896.8994
      2383.311        1857.125
    972100.106 9    751048.08746  23713957.873    23713957.5404   23713971.3124
     -1459.982       -1137.648
  -2221279.899 9  -1719068.83347  22926170.754    22926170.0534   22926182.6044
      2814.615        2193.206
  -1076749.427 8   -816163.60245  24215560.748    24215559.8134   24215575.8314
      1519.036        1183.664
  -2306205.871 9  -1774877.24348  21676249.967    21676250.0894   21676258.8634
      2893.870        2254.964
 80  4 13 21 42 59.9990000  0  8G19G18G31G27G03G02G10G13            -0.000116656
   -706402.566 9   -544249.61949  20564884.112    20564883.7664   20564892.7714
       832.894         649.008
    852015.110 9    658372.79248  20570242.869    20570242.5334   20570251.3484
     -1301.579       -1014.217
   -695898.887 9   -536380.73848  21565217.920    21565217.3844   21565227.5274
       643.437         501.379
  -1859580.890 9  -1432459.00248  21610353.159    21610352.7624   21610362.5554
      2382.416        1856.428
    986724.959 9    762444.04046  23716740.935    23716740.6044   23716754.3704
     -1464.855       -1141.445
  -2249412.763 9  -1740990.51347  22920817.232    22920816.5234   22920829.0604
      2812.116        2191.259
  -1091911.836 8   -827978.45945  24212675.466    24212674.5614   24212690.5444
      1513.548        1179.388
  -2335124.836 9  -1797411.47248  21670746.857    21670746.9734   21670755.7424
      2890.149        2252.064
 80  4 13 21 43  9.9990000  0  8G19G18G31G27G03G02G10G13            -0.000120548
   -714717.039 9   -550728.42749  20563301.911    20563301.5834   20563310.5684
       830.462         647.113
    865058.213 9    668536.23548  20572724.911    20572724.5644   20572733.3824
     -1306.594       -1018.125
   -702297.936 9   -541367.00248  21564000.229    21563999.6904   21564009.8384
       636.860         496.255
  -1883397.101 9  -1451017.07248  21605821.071    21605820.6734   21605830.4624
      2381.282        1855.544
   1001400.602 9    773879.55946  23719533.666    23719533.3174   23719547.0824
     -1469.785       -1145.287
  -2277518.603 9  -1762891.13147  22915468.852    22915468.1274   22915480.6664
      2809.539        2189.251
  -1107016.816 8   -839748.53045  24209801.065    24209800.1954   24209816.1664
      1507.880        1174.971
  -2364005.044 9  -1819915.50948  21665251.122    21665251.2444   21665259.9954
      2886.452        2249.183
 80  4 13 21 43 19.9990000  0  8G19G18G31G27G03G02G10G13            -0.000124443
   -723008.630 9   -557189.40249  20561724.096    20561723.7414   20561732.7304
       827.888         645.108
    878150.892 9    678738.30948  20575216.378    20575216.0314   20575224.8574
     -1311.891       -1022.253
   -708632.160 9   -546302.75848  21562794.876    21562794.3474   21562804.4674
       630.062         490.957
  -1907203.729 9  -1469567.67148  21601290.833    21601290.4254   21601300.2144
      2380.088        1854.614
   1016124.082 9    785352.35546  23722335.504    23722335.1384   23722348.8954
     -1474.825       -1149.214
  -2305599.985 9  -1784772.70247  22910125.119    22910124.3974   22910136.9294
      2806.795        2187.113
  -1122066.619 8   -851475.64545  24206937.148    24206936.2624   24206952.3224
      1502.111        1170.476
  -2392849.472 9  -1842391.66148  21659762.206    21659762.3184   21659771.0644
      2882.554        2246.146
 80  4 13 21 43 29.9990000  0  8G19G18G31G27G03G02G10G13            -0.000128341
   -731276.249 9   -563631.69849  20560150.815    20560150.4724   20560159.4594
       825.589         643.316
    891294.382 9    688979.97548  20577717.524    20577717.1714   20577726.0104
     -1316.830       -1026.101
   -714900.296 9   -551187.01748  21561602.085    21561601.5574   21561611.6774
       623.564         485.894
  -1930999.822 9  -1488110.06048  21596762.565    21596762.1604   21596771.9534
      2379.095        1853.840
   1030895.402 9    796862.44446  23725146.429    23725146.0624   23725159.8084
     -1479.469       -1152.833
  -2333655.212 9  -1806633.87747  22904786.362    22904785.6484   22904798.1774
      2804.254        2185.133
  -1137060.031 8   -863158.80645  24204084.052    24204083.1244   24204099.1774
      1496.566        1166.155
  -2421656.459 9  -1864838.64148  21654280.399    21654280.5204   21654289.2584
      2878.909        2243.306
 80  4 13 21 43 39.9990000  0  8G19G18G31G27G03G02G10G13            -0.000132245
   -739522.928 9   -570057.67649  20558581.521    20558581.1764   20558590.1704
       823.826         641.942
    904485.300 9    699258.59848  20580227.686    20580227.3404   20580236.1714
     -1321.307       -1029.590
   -721105.307 9   -556022.07948  21560421.312    21560420.7764   21560430.8994
       617.488         481.159
  -1954787.123 9  -1506645.60148  21592235.991    21592235.5824   21592245.3734
      2378.385        1853.287
   1045710.564 9    808406.68646  23727965.694    23727965.3134   23727979.0674
     -1483.523       -1155.992
  -2361687.273 9  -1828476.99747  22899452.016    22899451.3044   22899463.8364
      2802.203        2183.535
  -1152000.114 8   -874800.40645  24201240.984    24201240.0814   24201256.1314
      1491.523        1162.226
  -2450428.389 9  -1887258.29348  21648805.268    21648805.3884   21648814.1164
      2875.666        2240.779
 80  4 13 21 43 49.9990000  0  8G19G18G31G27G03G02G10G13            -0.000136155
   -747751.027 9   -576469.18349  20557015.773    20557015.4254   20557024.4264
       821.906         640.446
    917723.220 9    709573.84248  20582746.800    20582746.4534   20582755.2904
     -1326.113       -1033.335
   -727247.465 9   -560808.17448  21559252.512    21559251.9684   21559262.0954
       611.093         476.176
  -1978565.363 9  -1525174.08548  21587711.127    21587710.7234   21587720.5174
      2377.430        1852.543
   1060567.713 9    819983.65046  23730792.941    23730792.5594   23730806.3444
     -1487.765       -1159.297
  -2389696.898 9  -1850302.64347  22894121.946    22894121.2284   22894133.7494
      2799.867        2181.715
  -1166888.171 8   -886401.49445  24198407.939    24198406.9944   24198423.0194
      1486.241        1158.110
  -2479166.391 9  -1909651.51948  21643336.599    21643336.7194   21643345.4454
      2872.148        2238.037
 80  4 13 21 43 59.9990000  0  8G19G18G31G27G03G02G10G13            -0.000140066
   -755953.777 9   -582860.92749  20555454.857    20555454.4984   20555463.4834
       818.787         638.016
    931014.279 9    719930.50048  20585276.033    20585275.6784   20585284.5144
     -1331.902       -1037.846
   -733320.086 9   -565540.07848  21558096.914    21558096.3894   21558106.5044
       603.596         470.335
  -2002328.283 9  -1543690.62348  21583189.183    21583188.7884   21583198.5634
      2375.359        1850.929
   1075473.271 9    831598.32546  23733629.410    23733629.0064   23733642.7994
     -1493.166       -1163.506
  -2417676.979 9  -1872105.27347  22888797.487    22888796.7654   22888809.2984
      2796.378        2178.996
  -1181717.809 8   -897957.02745  24195585.993    24195585.0544   24195601.0274
      1479.859        1153.137
  -2507863.359 9  -1932012.76648  21637875.739    21637875.8464   21637884.5714
      2867.534        2234.442
 80  4 13 21 44  9.9990000  0  8G19G18G31G27G03G02G10G13            -0.000143981
   -764134.562 9   -589235.55949  20553898.105    20553897.7494   20553906.7394
       817.012         636.633
    944353.155 9    730324.41548  20587814.361    20587814.0004   20587822.8324
     -1336.193       -1041.189
   -739327.843 9   -570221.44348  21556953.684    21556953.1584   21556963.2544
       597.647         465.699
  -2026080.874 9  -1562199.11948  21578669.214    21578668.8064   21578678.5964
      2374.819        1850.508
   1090423.451 9    843247.77746  23736474.373    23736473.9604   23736487.7284
     -1497.212       -1166.659
  -2445632.600 9  -1893888.82947  22883477.682    22883476.9594   22883489.4964
      2794.416        2177.467
  -1196494.003 8   -909470.92445  24192774.153    24192773.2124   24192789.1584
      1475.066        1149.402
  -2536523.946 9  -1954345.66548  21632421.794    21632421.9034   21632430.6254
      2864.332        2231.947
 80  4 13 21 44 19.9990000  0  8G19G18G31G27G03G02G10G13            -0.000147900
   -772289.895 9   -595590.36249  20552346.190    20552345.8404   20552354.8234
       814.396         634.594
    957742.556 9    740757.70248  20590362.295    20590361.9404   20590370.7634
     -1341.284       -1045.156
   -745268.525 9   -574850.53948  21555823.205    21555822.6884   21555832.7764
       590.862         460.412
  -2049820.943 9  -1580697.85448  21574151.619    21574151.2194   21574160.9874
      2373.564        1849.530
   1105422.527 9    854935.33845  23739328.637    23739328.2274   23739341.9884
     -1502.211       -1170.554
  -2473561.084 9  -1915651.24647  22878163.049    22878162.3264   22878174.8444
      2791.663        2175.322
  -1211214.992 8   -920941.82045  24189972.822    24189971.8694   24189987.7834
      1469.535        1145.092
  -2565145.215 9  -1976647.93148  21626975.326    21626975.4324   21626984.1514
      2860.390        2228.875
 80  4 13 21 44 29.9990000  0  8G19G18G31G27G03G02G10G13            -0.000151824
   -780421.691 9   -601926.82449  20550798.768    20550798.4204   20550807.4054
       811.993         632.722
    971179.633 9    751228.13748  20592919.311    20592918.9484   20592927.7704
     -1346.090       -1048.901
   -751144.115 9   -579428.91848  21554705.117    21554704.5934   21554714.6844
       584.293         455.293
  -2073551.372 9  -1599189.07748  21569635.863    21569635.4534   21569645.2244
      2372.577        1848.761
   1120468.246 9    866659.22845  23742191.769    23742191.3584   23742205.1034
     -1506.857       -1174.174
  -2501465.166 9  -1937394.65147  22872853.040    22872852.3294   22872864.8434
      2789.186        2173.392
  -1225884.320 8   -932372.44645  24187181.380    24187180.4174   24187196.2924
      1464.326        1141.033
  -2593729.643 9  -1998921.48648  21621535.869    21621535.9804   21621544.6934
      2856.610        2225.930
 80  4 13 21 44 39.9990000  0  8G19G18G31G27G03G02G10G13            -0.000155752
   -788527.100 9   -608242.72149  20549256.368    20549256.0184   20549264.9944
       809.489         630.771
    984667.337 9    761738.02548  20595485.954    20595485.5934   20595494.4134
     -1351.059       -1052.773
   -756951.222 9   -583953.93448  21553600.053    21553599.5284   21553609.6274
       577.550         450.039
  -2097269.572 9  -1617670.77548  21565122.440    21565122.0304   21565131.7914
      2371.448        1847.882
   1135562.285 9    878420.77945  23745064.092    23745063.6934   23745077.4524
     -1511.528       -1177.814
  -2529342.486 9  -1959117.20547  22867548.136    22867547.4264   22867559.9424
      2786.693        2171.449
  -1240498.362 8   -943759.99145  24184400.291    24184399.4094   24184415.3684
      1458.931        1136.829
  -2622273.753 9  -2021163.62048  21616104.089    21616104.2074   21616112.9114
      2852.702        2222.885
 80  4 13 21 44 49.9990000  0  8G19G18G31G27G03G02G10G13            -0.000159682
   -796605.686 9   -614537.71949  20547719.067    20547718.7064   20547727.6994
       806.041         628.084
    998207.681 9    772288.92648  20598062.608    20598062.2444   20598071.0654
     -1357.128       -1057.502
   -762688.336 9   -588424.40648  21552508.310    21552507.7934   21552517.8844
       569.741         443.954
  -2120973.564 9  -1636141.39548  21560611.707    21560611.2954   21560621.0524
      2369.189        1846.121
   1150704.766 9    890220.08045  23747945.634    23747945.2364   23747958.9854
     -1517.115       -1182.168
  -2557192.927 9  -1980818.81447  22862248.361    22862247.6434   22862260.1524
      2783.298        2168.804
  -1255055.830 8   -955103.46345  24181630.116    24181629.2004   24181645.1744
      1452.434        1131.767
  -2650775.979 9  -2043373.11948  21610680.279    21610680.3924   21610689.0974
      2847.746        2219.023
 80  4 13 21 44 59.9990000  0  8G19G18G31G27G03G02G10G13            -0.000163618
   -804659.684 9   -620813.55449  20546186.442    20546186.0994   20546195.0834
       803.994         626.489
   1011798.158 9    782878.89648  20600648.811    20600648.4424   20600657.2624
     -1361.701       -1061.066
   -768357.600 9   -592842.00748  21551429.465    21551428.9464   21551439.0404
       563.416         439.025
  -2144665.209 9  -1654602.39748  21556103.331    21556102.9144   21556112.6724
      2368.462        1845.555
   1165892.634 9    902054.74045  23750835.820    23750835.4474   23750849.1654
     -1521.221       -1185.367
  -2585020.562 9  -2002502.64047  22856952.909    22856952.2044   22856964.7004
      2781.517        2167.416
  -1269558.185 8   -966403.95745  24178870.335    24178869.4504   24178885.4544
      1447.336        1127.794
  -2679239.301 9  -2065552.30648  21605263.879    21605263.9914   21605272.6844
      2844.271        2216.315
 80  4 13 21 45  9.9990000  0  8G19G18G31G27G03G02G10G13            -0.000167559
   -812688.723 9   -627069.94449  20544658.579    20544658.2244   20544667.2024
       801.273         624.369
   1025439.319 9    793508.35848  20603244.646    20603244.2924   20603253.1084
     -1367.071       -1065.250
   -773959.120 9   -597206.82648  21550363.533    21550363.0104   21550373.0964
       556.337         433.509
  -2168345.697 9  -1673054.71248  21551597.082    21551596.6624   21551606.4104
      2367.100        1844.494
   1181125.951 9    913924.82645  23753734.634    23753734.2784   23753748.0284
     -1526.006       -1189.096
  -2612826.317 9  -2024169.42547  22851661.641    22851660.9184   22851673.3994
      2779.131        2165.557
  -1284005.771 8   -977661.81645  24176120.937    24176120.0974   24176136.0804
      1441.638        1123.354
  -2707663.873 9  -2087701.30248  21599854.839    21599854.9644   21599863.6394
      2840.198        2213.141
 80  4 13 21 45 19.9990000  0  8G19G18G31G27G03G02G10G13            -0.000171506
   -820693.702 9   -633307.58749  20543135.277    20543134.9354   20543143.9174
       799.146         622.711
   1039131.266 9    804177.39248  20605850.150    20605849.7924   20605858.6134
     -1371.899       -1069.012
   -779492.820 9   -601518.80048  21549310.491    21549309.9724   21549320.0574
       549.861         428.463
  -2192015.894 9  -1691499.00448  21547092.778    21547092.3554   21547102.1024
      2366.373        1843.927
   1196404.891 9    925830.45945  23756642.163    23756641.8114   23756655.5584
     -1530.353       -1192.483
  -2640611.109 9  -2045819.87747  22846374.351    22846373.6174   22846386.1064
      2777.284        2164.117
  -1298399.659 9   -988877.83445  24173381.944    24173381.0314   24173397.0154
      1436.572        1119.407
  -2736050.722 9  -2109820.90048  21594452.992    21594453.1074   21594461.7764
      2836.691        2210.409
 80  4 13 21 45 29.9990000  0  8G19G18G31G27G03G02G10G13            -0.000175459
   -828675.923 9   -639527.49349  20541616.315    20541615.9704   20541624.9384
       797.387         621.341
   1052873.222 9    814885.39848  20608465.175    20608464.8174   20608473.6354
     -1376.370       -1072.496
   -784960.071 9   -605778.98848  21548270.107    21548269.5914   21548279.6734
       543.688         423.653
  -2215677.507 9  -1709936.60348  21542590.107    21542589.6874   21542599.4354
      2366.100        1843.714
   1211728.544 9    937770.92645  23759558.196    23759557.8484   23759571.6014
     -1534.243       -1195.514
  -2668376.169 9  -2067454.95847  22841090.804    22841090.0864   22841102.5564
      2775.877        2163.021
  -1312740.684 8  -1000052.62145  24170652.998    24170652.0534   24170668.0084
      1431.730        1115.634
  -2764400.104 9  -2131911.30248  21589058.271    21589058.3874   21589067.0524
      2833.364        2207.816
 80  4 13 21 45 39.9990000  0  8G19G18G31G27G03G02G10G13            -0.000179416
   -836633.498 9   -645728.19849  20540102.033    20540101.7014   20540110.6654
       794.344         618.969
   1066667.031 9    825633.80648  20611090.071    20611089.7074   20611098.5184
     -1382.148       -1076.998
   -790358.019 9   -609985.17648  21547242.908    21547242.3804   21547252.4784
       536.160         417.787
  -2239329.724 9  -1728366.88448  21538089.225    21538088.8084   21538098.5564
      2364.573        1842.524
   1227097.685 9    949746.84645  23762482.885    23762482.5234   23762496.2764
     -1539.309       -1199.462
  -2696120.248 9  -2089073.67147  22835811.259    22835810.5334   22835823.0164
      2773.208        2160.941
  -1327026.472 8  -1011184.38745  24167934.405    24167933.5254   24167949.4644
      1425.590        1110.849
  -2792708.760 9  -2153969.97548  21583671.290    21583671.4104   21583680.0744
      2828.672        2204.160
 80  4 13 21 45 49.9990000  0  8G19G18G31G27G03G02G10G13            -0.000183376
   -844565.532 9   -651909.00049  20538592.619    20538592.2744   20538601.2474
       791.712         616.918
   1080513.519 9    836423.26148  20613724.993    20613724.6244   20613733.4314
     -1387.494       -1081.164
   -795686.134 9   -614136.95148  21546228.998    21546228.4704   21546238.5534
       529.123         412.304
  -2262972.376 9  -1746789.71548  21533590.165    21533589.7424   21533599.4954
      2363.656        1841.810
   1242512.496 9    961758.34945  23765416.275    23765415.9024   23765429.6414
     -1543.964       -1203.089
  -2723842.382 9  -2110675.30447  22830535.877    22830535.1594   22830547.6344
      2770.946        2159.179
  -1341255.634 8  -1022272.05645  24165226.679    24165225.7374   24165241.7314
      1419.913        1106.426
  -2820976.152 9  -2175996.48848  21578292.188    21578292.2884   21578300.9404
      2824.538        2200.939
 80  4 13 21 45 59.9990000  0  8G19G18G31G27G03G02G10G13            -0.000187339
   -852472.694 9   -658070.41949  20537087.936    20537087.5864   20537096.5784
       789.026         614.825
   1094412.610 9    847253.70648  20616369.914    20616369.5514   20616378.3624
     -1392.994       -1085.450
   -800945.458 9   -618235.12548  21545228.190    21545227.6504   21545237.7394
       522.109         406.838
  -2286607.669 9  -1765206.80348  21529092.510    21529092.0924   21529101.8364
      2362.718        1841.079
   1257972.944 9    973805.42645  23768358.334    23768357.9584   23768371.6674
     -1548.771       -1206.835
  -2751543.117 9  -2132260.24647  22825264.577    22825263.8674   22825276.3254
      2768.580        2157.335
  -1355429.215 8  -1033316.38745  24162529.611    24162528.6494   24162544.5344
      1414.124        1101.915
  -2849203.460 9  -2197991.76648  21572920.680    21572920.8014   21572929.4444
      2820.348        2197.674
 80  4 13 21 46  9.9990000  0  8G19G18G31G27G03G02G10G13            -0.000191306
   -860353.216 9   -664211.08149  20535588.311    20535587.9904   20535596.9704
       786.697         613.011
   1108366.080 9    858126.52848  20619025.180    20619024.8224   20619033.6334
     -1398.053       -1089.392
   -806135.944 9   -622279.65548  21544240.487    21544239.9284   21544250.0134
       515.615         401.778
  -2310234.661 9  -1783617.43548  21524596.428    21524596.0124   21524605.7494
      2362.308        1840.759
   1273480.918 9    985889.50545  23771309.449    23771309.0494   23771322.7614
     -1553.224       -1210.304
  -2779221.413 9  -2153827.72647  22819997.550    22819996.8404   22820009.2914
      2766.707        2155.876
  -1369545.752 8  -1044316.26145  24159843.275    24159842.3974   24159858.2224
      1408.788        1097.757
  -2877389.416 9  -2219954.82648  21567557.063    21567557.1694   21567565.8034
      2816.573        2194.732
 80  4 13 21 46 19.9990000  0  8G19G18G31G27G03G02G10G13            -0.000195276
   -868207.530 9   -670331.32349  20534093.689    20534093.3554   20534102.3354
       784.124         611.006
   1122373.745 9    869041.57448  20621690.769    20621690.4034   20621699.2194
     -1403.507       -1093.642
   -811257.924 9   -626270.81348  21543265.793    21543265.2544   21543275.3124
       508.765         396.440
  -2333853.359 9  -1802021.59948  21520101.940    21520101.5144   21520111.2484
      2361.420        1840.068
   1289037.127 9    998011.20145  23774269.726    23774269.3494   23774283.0874
     -1558.038       -1214.056
  -2806877.439 9  -2175377.83747  22814734.765    22814734.0414   22814746.4934
      2764.462        2154.126
  -1383604.776 8  -1055271.33545  24157167.950    24157167.0434   24157182.9074
      1402.989        1093.238
  -2905534.351 9  -2241885.92548  21562201.244    21562201.3504   21562209.9814
      2812.466        2191.532
 80  4 13 21 46 29.9990000  0  8G19G18G31G27G03G02G10G13            -0.000199246
   -876034.389 9   -676430.16749  20532604.297    20532603.9434   20532612.9274
       781.325         608.825
   1136438.173 9    880000.85448  20624367.148    20624366.7934   20624375.6114
     -1409.277       -1098.138
   -816310.003 9   -630207.49748  21542304.415    21542303.8784   21542313.9314
       501.707         390.941
  -2357461.527 9  -1820417.55748  21515609.442    21515609.0234   21515618.7554
      2360.264        1839.167
   1304643.580 9   1010172.02345  23777239.584    23777239.2004   23777252.9194
     -1563.132       -1218.025
  -2834508.891 9  -2196908.80047  22809476.646    22809475.9224   22809488.3624
      2761.935        2152.157
  -1397603.556 8  -1066179.46245  24154504.038    24154503.1574   24154519.0234
      1396.850        1088.455
  -2933635.831 9  -2263783.15448  21556853.689    21556853.8114   21556862.4284
      2807.997        2188.050
 80  4 13 21 46 39.9990000  0  8G19G18G31G27G03G02G10G13            -0.000203219
   -883837.762 9   -682510.71649  20531119.348    20531119.0134   20531127.9954
       779.264         607.219
   1150556.393 9    891002.04748  20627053.780    20627053.4144   20627062.2324
     -1414.498       -1102.206
   -821295.380 9   -634092.20348  21541355.726    21541355.1764   21541365.2424
       495.260         385.917
  -2381062.631 9  -1838808.01148  21511118.299    21511117.8804   21511127.6044
      2359.808        1838.811
   1320295.439 9   1022368.25045  23780218.064    23780217.6624   23780231.4174
     -1567.341       -1221.305
  -2862119.222 9  -2218423.29747  22804222.558    22804221.8394   22804234.2664
      2760.026        2150.670
  -1411544.867 8  -1077042.79945  24151851.091    24151850.1994   24151866.0144
      1391.273        1084.109
  -2961697.143 9  -2285649.09048  21551513.798    21551513.9094   21551522.5224
      2804.213        2185.101
 80  4 13 21 46 49.9990000  0  8G19G18G31G27G03G02G10G13            -0.000207194
   -891618.963 9   -688573.98049  20529638.648    20529638.3064   20529647.2834
       777.158         605.578
   1164728.721 9    902045.40748  20629750.695    20629750.3344   20629759.1554
     -1419.793       -1106.332
   -826214.504 9   -637925.28548  21540419.642    21540419.1084   21540429.1564
       488.756         380.849
  -2404656.657 9  -1857192.95048  21506628.496    21506628.0604   21506637.8084
      2359.189        1838.329
   1335991.303 9   1034598.75145  23783204.923    23783204.5204   23783218.3224
     -1571.638       -1224.653
  -2889708.013 9  -2239921.02947  22798972.575    22798971.8464   22798984.2754
      2757.956        2149.057
  -1425427.437 8  -1087860.37745  24149209.300    24149208.4214   24149224.2014
      1385.473        1079.589
  -2989718.596 9  -2307483.96748  21546181.481    21546181.5814   21546190.1984
      2800.374        2182.110
 80  4 13 21 46 59.9990000  0  8G19G18G31G27G03G02G10G13            -0.000211169
   -899374.546 9   -694617.28749  20528162.798    20528162.4694   20528171.4434
       774.321         603.367
   1178959.296 9    913134.15148  20632458.711    20632458.3404   20632467.1594
     -1425.902       -1111.092
   -831064.071 9   -641704.16448  21539496.817    21539496.2644   21539506.3084
       481.560         375.242
  -2428239.794 9  -1875569.40448  21502140.763    21502140.3314   21502150.0764
      2357.879        1837.308
   1351735.505 8   1046866.90745  23786200.977    23786200.5964   23786214.3974
     -1576.798       -1228.674
  -2917271.512 9  -2261399.04147  22793727.388    22793726.6674   22793739.0784
      2755.105        2146.835
  -1439247.300 8  -1098629.08345  24146579.487    24146578.5874   24146594.3574
      1378.955        1074.510
  -3017697.090 9  -2329285.36948  21540857.328    21540857.4414   21540866.0554
      2795.814        2178.556
 80  4 13 21 47  9.9990000  0  8G19G18G31G27G03G02G10G13            -0.000215145
   -907106.888 9   -700642.48349  20526691.393    20526691.0464   20526700.0174
       772.117         601.650
   1193244.714 9    924265.62948  20635177.147    20635176.7824   20635185.6004
     -1431.133       -1115.169
   -835847.513 9   -645431.52148  21538586.561    21538586.0224   21538596.0354
       475.151         370.248
  -2451816.641 9  -1893940.95748  21497654.216    21497653.7814   21497663.5294
      2357.539        1837.043
   1367525.320 9   1059170.62445  23789205.723    23789205.3224   23789219.1254
     -1581.175       -1232.084
  -2944811.803 9  -2282858.97347  22788486.632    22788485.8904   22788498.2964
      2752.941        2145.149
  -1453008.542 9  -1109352.09445  24143960.842    24143959.9374   24143975.6854
      1373.329        1070.126
  -3045636.016 9  -2351055.93748  21535540.714    21535540.8274   21535549.4334
      2792.074        2175.642
 80  4 13 21 47 19.9990000  0  8G19G18G31G27G03G02G10G13            -0.000219123
   -914816.212 9   -706649.74249  20525224.355    20525224.0094   20525232.9984
       769.667         599.741
   1207582.962 9    935438.27748  20637905.650    20637905.2864   20637914.1084
     -1436.612       -1119.438
   -840566.426 9   -649108.59148  21537688.579    21537688.0344   21537698.0444
       468.559         365.111
  -2475389.725 9  -1912309.57848  21493168.395    21493167.9564   21493177.7034
      2356.971        1836.601
   1383360.240 8   1071509.48845  23792219.030    23792218.6194   23792232.4544
     -1585.933       -1235.792
  -2972328.743 9  -2304300.70347  22783250.319    22783249.5774   22783261.9724
      2750.320        2143.106
  -1466713.606 8  -1120031.33345  24141352.885    24141351.9934   24141367.7164
      1367.604        1065.665
  -3073536.496 9  -2372796.55048  21530231.419    21530231.5204   21530240.1204
      2788.067        2172.520
 80  4 13 21 47 29.9990000  0  8G19G18G31G27G03G02G10G13            -0.000223102
   -922500.784 9   -712637.71549  20523762.033    20523761.6824   20523770.6694
       766.884         597.572
   1221976.620 9    946654.09648  20640644.678    20640644.3154   20640653.1374
     -1442.428       -1123.970
   -845218.955 9   -652733.93748  21536803.243    21536802.6924   21536812.7124
       461.627         359.709
  -2498955.673 9  -1930672.64248  21488683.942    21488683.4954   21488693.2404
      2355.837        1835.717
   1399242.797 9   1083885.45545  23795241.418    23795241.0164   23795254.8544
     -1590.956       -1239.706
  -2999817.706 9  -2325720.63547  22778019.309    22778018.5714   22778030.9704
      2747.138        2140.627
  -1480359.817 8  -1130664.74645  24138756.004    24138755.1744   24138771.0054
      1361.360        1060.800
  -3101396.817 9  -2394505.87248  21524929.758    21524929.8624   21524938.4544
      2783.731        2169.141
 80  4 13 21 47 39.9990000  0  8G19G18G31G27G03G02G10G13            -0.000227081
   -930161.610 9   -718607.18449  20522304.217    20522303.8794   20522312.8534
       764.950         596.065
   1236424.735 9    957912.35048  20643394.076    20643393.7144   20643402.5344
     -1447.523       -1127.940
   -849806.452 9   -656308.61248  21535930.284    21535929.7184   21535939.7264
       455.567         354.987
  -2522513.626 9  -1949029.47248  21484200.989    21484200.5564   21484210.3014
      2355.422        1835.394
   1415170.857 8   1096296.88445  23798272.445    23798272.0494   23798285.9194
     -1594.986       -1242.846
  -3027277.987 9  -2347118.23147  22772793.776    22772793.0364   22772805.4074
      2744.606        2138.654
  -1493946.994 9  -1141252.17145  24136170.515    24136169.6214   24136185.6164
      1355.777        1056.450
  -3129217.553 9  -2416184.34548  21519635.634    21519635.7394   21519644.3254
      2780.174        2166.369
 80  4 13 21 47 49.9990000  0  8G19G18G31G27G03G02G10G13            -0.000231061
   -937799.971 9   -724559.14749  20520850.689    20520850.3424   20520859.3224
       762.245         593.957
   1250926.749 9    969212.60648  20646153.722    20646153.3664   20646162.1904
     -1453.329       -1132.464
   -854329.779 9   -659833.27848  21535069.527    21535068.9634   21535078.9664
       448.666         349.610
  -2546064.181 9  -1967380.54048  21479719.469    21479719.0224   21479728.7704
      2354.233        1834.467
   1431142.594 9   1108742.35545  23801311.792    23801311.4094   23801325.2984
     -1599.844       -1246.632
  -3054709.801 9  -2368493.63147  22767573.660    22767572.9084   22767585.2734
      2741.332        2136.103
  -1507476.613 8  -1151794.70545  24133595.912    24133595.0744   24133611.0214
      1349.630        1051.660
  -3156999.541 9  -2437832.62848  21514348.880    21514348.9924   21514357.5704
      2775.912        2163.048
 80  4 13 21 47 59.9990000  0  8G19G18G31G27G03G02G10G13            -0.000235042
   -945414.666 9   -730492.66849  20519401.655    20519401.3124   20519410.2824
       760.926         592.929
   1265483.687 9    980555.65648  20648923.825    20648923.4734   20648932.2994
     -1457.772       -1135.926
   -858787.583 9   -663306.89248  21534221.246    21534220.6734   21534230.6774
       443.132         345.298
  -2569605.561 9  -1985724.45648  21475239.686    21475239.2514   21475248.9784
      2354.307        1834.525
   1447160.580 8   1121223.85445  23804359.908    23804359.5484   23804373.4714
     -1603.534       -1249.507
  -3082111.573 9  -2389845.62147  22762359.242    22762358.5004   22762370.8574
      2739.329        2134.542
  -1520948.974 8  -1162292.63745  24131032.071    24131031.3114   24131047.2264
      1345.056        1048.096
  -3184742.850 9  -2459450.77148  21509069.500    21509069.5904   21509078.1734
      2773.098        2160.856
 80  4 13 21 48  9.9990000  0  8G19G18G31G27G03G02G10G13            -0.000239025
   -953008.563 9   -736409.98649  20517956.599    20517956.2394   20517965.2134
       758.155         590.770
   1280092.251 9    991938.93848  20651703.755    20651703.3924   20651712.2314
     -1463.588       -1140.458
   -863182.269 9   -666731.31648  21533384.954    21533384.3804   21533394.4044
       436.124         339.837
  -2593140.213 9  -2004063.13448  21470761.188    21470760.7334   21470770.4764
      2352.905        1833.432
   1463223.404 8   1133740.29645  23807416.571    23807416.2194   23807430.1994
     -1608.744       -1253.567
  -3109485.628 9  -2411176.01647  22757150.116    22757149.3704   22757161.7204
      2735.849        2131.830
  -1534367.760 9  -1172748.83345  24128478.594    24128477.7824   24128493.6614
      1339.007        1043.382
  -3212450.515 9  -2481041.14048  21503796.890    21503796.9864   21503805.5644
      2768.837        2157.535
 80  4 13 21 48 19.9990000  0  8G19G18G31G27G03G02G10G13            -0.000243009
   -960579.892 9   -742309.71649  20516515.817    20516515.4724   20516524.4484
       755.631         588.803
   1294753.546 9   1003363.30948  20654493.705    20654493.3484   20654502.1834
     -1469.139       -1144.784
   -867511.598 9   -670104.82048  21532561.121    21532560.5444   21532570.5554
       429.263         334.491
  -2616664.421 9  -2022393.67048  21466284.664    21466284.2284   21466293.9504
      2351.492        1832.331
   1479333.431 8   1146293.52145  23810482.234    23810481.8914   23810495.9014
     -1613.756       -1257.472
  -3136830.067 9  -2432483.33447  22751946.619    22751945.8724   22751958.2154
      2732.572        2129.277
  -1547730.842 9  -1183161.60845  24125935.818    24125934.9294   24125950.7424
      1333.125        1038.799
  -3240120.077 9  -2502601.82048  21498531.547    21498531.6364   21498540.1984
      2764.705        2154.316
 80  4 13 21 48 29.9990000  0  8G19G18G31G27G03G02G10G13            -0.000246993
   -968129.174 9   -748192.26749  20515079.234    20515078.8794   20515087.8474
       753.448         587.102
   1309467.204 9   1014828.48048  20657293.632    20657293.2784   20657302.1224
     -1474.358       -1148.850
   -871774.367 9   -673426.45348  21531749.953    21531749.3694   21531759.3794
       422.536         329.249
  -2640178.041 9  -2040715.95548  21461810.158    21461809.7154   21461819.4444
      2350.469        1831.534
   1495490.622 8   1158883.48645  23813556.871    23813556.4794   23813570.5654
     -1618.456       -1261.135
  -3164144.422 9  -2453767.21447  22746748.837    22746748.1004   22746760.4294
      2729.552        2126.924
  -1561037.827 9  -1193530.64745  24123403.663    24123402.7864   24123418.4794
      1327.549        1034.454
  -3267751.808 9  -2524133.02148  21493273.386    21493273.4754   21493282.0394
      2760.920        2151.366
 80  4 13 21 48 39.9990000  0  8G19G18G31G27G03G02G10G13            -0.000250976
   -975654.468 9   -754056.12549  20513647.222    20513646.8794   20513655.8344
       751.592         585.656
   1324235.120 9   1026335.93448  20660103.896    20660103.5434   20660112.3924
     -1479.247       -1152.660
   -875968.319 9   -676694.46148  21530951.873    21530951.2914   21530961.2944
       416.267         324.364
  -2663680.066 9  -2059029.20748  21457337.862    21457337.4154   21457347.1444
      2349.959        1831.137
   1511695.762 8   1171510.82045  23816640.617    23816640.2314   23816654.3584
     -1622.603       -1264.366
  -3191426.479 9  -2475025.92747  22741557.223    22741556.4684   22741568.7904
      2726.860        2124.826
  -1574287.995 9  -1203855.43945  24120882.242    24120881.4134   24120897.0514
      1322.506        1030.524
  -3295343.533 9  -2545633.04448  21488022.851    21488022.9364   21488031.4804
      2757.532        2148.726
 80  4 13 21 48 49.9990000  0  8G19G18G31G27G03G02G10G13            -0.000254956
   -983153.632 9   -759899.62649  20512220.182    20512219.8354   20512228.7944
       748.666         583.376
   1339059.823 9   1037887.63648  20662924.962    20662924.6044   20662933.4604
     -1485.260       -1157.345
   -880091.711 9   -679907.49548  21530167.242    21530166.6444   21530176.6654
       408.835         318.573
  -2687169.130 9  -2077332.35748  21452868.026    21452867.5824   21452877.3074
      2348.305        1829.848
   1527949.975 8   1184176.41145  23819733.689    23819733.2834   23819747.4824
     -1627.859       -1268.462
  -3218674.358 9  -2496258.00447  22736372.104    22736371.3464   22736383.6594
      2723.186        2121.963
  -1587479.971 8  -1214134.89445  24118371.877    24118371.0574   24118386.7184
      1316.362        1025.737
  -3322893.183 9  -2567100.28148  21482780.327    21482780.3994   21482788.9414
      2752.963        2145.166
 80  4 13 21 48 59.9990000  0  8G19G18G31G27G03G02G10G13            -0.000258937
   -990631.549 9   -765726.56849  20510797.166    20510796.8204   20510805.7874
       746.271         581.510
   1353937.078 9   1049480.28548  20665756.032    20665755.6704   20665764.5224
     -1490.755       -1161.627
   -884148.321 9   -683068.48548  21529395.301    21529394.7034   21529404.7244
       401.900         313.169
  -2710649.218 9  -2095628.51448  21448399.900    21448399.4564   21448409.1854
      2347.120        1828.925
   1544250.210 8   1196877.84445  23822835.524    23822835.1084   23822849.3634
     -1632.774       -1272.291
  -3245892.646 9  -2517467.01647  22731192.616    22731191.8424   22731204.1554
      2719.974        2119.460
  -1600618.026 9  -1224372.33845  24115871.769    24115870.9214   24115886.6054
      1310.707        1021.330
  -3350404.877 9  -2588537.95048  21477545.008    21477545.0834   21477553.6174
      2748.925        2142.019
 80  4 13 21 49  9.9990000  0  8G19G18G31G27G03G02G10G13            -0.000262917
   -998085.889 9   -771535.14049  20509378.654    20509378.3064   20509387.2784
       744.109         579.825
   1368868.080 9   1061114.81548  20668597.336    20668596.9734   20668605.8254
     -1495.926       -1165.657
   -888136.513 9   -686176.16548  21528636.380    21528635.7724   21528645.7894
       395.247         307.985
  -2734118.407 9  -2113916.18048  21443933.848    21443933.4184   21443943.1284
      2346.236        1828.236
   1560598.850 8   1209616.99145  23825946.583    23825946.1534   23825960.4434
     -1637.404       -1275.899
  -3273080.534 9  -2538652.35747  22726018.925    22726018.1434   22726030.4414
      2717.133        2117.246
  -1613701.450 9  -1234567.20145  24113382.139    24113381.2134   24113396.8604
      1305.507        1017.278
  -3377877.373 9  -2609945.06748  21472317.157    21472317.2274   21472325.7504
      2745.196        2139.114
 80  4 13 21 49 19.9990000  0  8G19G18G31G27G03G02G10G13            -0.000266897
  -1005517.027 9   -777325.63249  20507964.563    20507964.2054   20507973.1774
       742.011         578.190
   1383852.260 9   1072790.78348  20671448.744    20671448.3774   20671457.2404
     -1501.003       -1169.613
   -892056.392 9   -689230.61548  21527890.465    21527889.8574   21527899.8774
       388.592         302.799
  -2757577.105 9  -2132195.67248  21439469.807    21439469.3554   21439479.0704
      2345.370        1827.561
   1576994.690 8   1222392.92845  23829066.632    23829066.2014   23829080.4954
     -1641.843       -1279.358
  -3300238.743 9  -2559814.55847  22720850.839    22720850.0764   22720862.3674
      2714.405        2115.121
  -1626731.640 8  -1244720.56345  24110902.553    24110901.6374   24110917.2584
      1300.375        1013.279
  -3405310.649 9  -2631321.62648  21467096.765    21467096.8284   21467105.3584
      2741.419        2136.171
 80  4 13 21 49 29.9990000  0  8G19G18G31G27G03G02G10G13            -0.000270880
  -1012929.782 9   -783101.80349  20506553.964    20506553.6114   20506562.5844
       739.963         576.595
   1398884.941 9   1084504.54548  20674309.385    20674309.0154   20674317.8794
     -1506.101       -1173.585
   -895911.380 9   -692234.50048  21527156.890    21527156.2894   21527166.3004
       381.812         297.516
  -2781027.606 9  -2150468.77348  21435007.306    21435006.8654   21435016.5604
      2344.146        1826.607
   1593433.253 8   1235202.14845  23832194.796    23832194.3824   23832208.6814
     -1646.363       -1282.880
  -3327371.584 9  -2580956.99647  22715687.611    22715686.8534   22715699.1194
      2711.667        2112.987
  -1639711.815 8  -1254834.97345  24108432.432    24108431.5184   24108447.2214
      1295.069        1009.145
  -3432707.496 9  -2652669.79848  21461883.303    21461883.3704   21461891.8934
      2737.461        2133.086
 80  4 13 21 49 39.9990000  0  8G19G18G31G27G03G02G10G13            -0.000274860
  -1020318.478 9   -788859.22349  20505147.953    20505147.5884   20505156.5564
       738.124         575.162
   1413973.166 9   1096261.58948  20677180.591    20677180.2254   20677189.0854
     -1511.141       -1177.512
   -899693.621 9   -695181.69748  21526437.144    21526436.5514   21526446.5514
       374.987         292.198
  -2804460.395 9  -2168728.07248  21430548.194    21430547.7584   21430557.4384
      2342.738        1825.510
   1609921.337 8   1248049.95845  23835332.407    23835331.9594   23835346.3144
     -1650.877       -1286.398
  -3354472.949 9  -2602074.90247  22710530.366    22710529.6014   22710541.8654
      2709.031        2110.933
  -1652633.667 9  -1264903.94045  24105973.505    24105972.5504   24105988.3844
      1289.640        1004.914
  -3460060.259 9  -2673983.62148  21456678.226    21456678.2944   21456686.8194
      2733.555        2130.043
 80  4 13 21 49 49.9990000  0  8G19G18G31G27G03G02G10G13            -0.000278840
  -1027687.233 9   -794601.10549  20503745.727    20503745.3534   20503754.3254
       736.038         573.536
   1429112.793 9   1108058.68848  20680061.591    20680061.2174   20680070.0874
     -1516.372       -1181.589
   -903406.286 9   -698074.67748  21525730.658    21525730.0604   21525740.0674
       367.940         286.706
  -2827878.399 9  -2186975.85548  21426091.904    21426091.4504   21426101.1194
      2341.276        1824.371
   1626454.717 8   1260933.05645  23838478.647    23838478.1734   23838492.5624
     -1655.409       -1289.929
  -3381548.127 9  -2623172.41147  22705378.090    22705377.3444   22705389.5934
      2706.453        2108.924
  -1665500.499 8  -1274930.02945  24103525.022    24103524.0594   24103539.9624
      1284.091        1000.590
  -3487372.268 9  -2695265.68748  21451480.909    21451480.9814   21451489.4964
      2729.320        2126.743
 80  4 13 21 49 59.9990000  0  8G19G18G31G27G03G02G10G13            -0.000282820
  -1035034.711 9   -800326.40749  20502347.539    20502347.1644   20502356.1324
       733.884         571.858
   1444304.910 9   1119896.68448  20682952.564    20682952.2004   20682961.0684
     -1521.567       -1185.637
   -907048.135 9   -700912.48348  21525037.628    21525037.0474   21525047.0434
       360.924         281.239
  -2851281.982 9  -2205212.39748  21421638.336    21421637.8904   21421647.5444
      2339.945        1823.334
   1643035.204 8   1273852.88145  23841633.825    23841633.3704   23841647.7824
     -1660.232       -1293.687
  -3408598.027 9  -2644250.21047  22700230.639    22700229.8844   22700242.1314
      2704.040        2107.044
  -1678311.536 9  -1284912.65745  24101087.136    24101086.1644   24101102.0854
      1278.577         996.294
  -3514642.152 9  -2716514.92848  21446291.626    21446291.6834   21446300.1924
      2725.198        2123.531
 80  4 13 21 50  9.9990000  0  8G19G18G31G27G03G02G10G13            -0.000286799
  -1042359.805 9   -806034.26949  20500953.609    20500953.2444   20500962.2154
       731.815         570.245
   1459549.979 9   1131775.94348  20685853.617    20685853.2424   20685862.1264
     -1526.744       -1189.671
   -910619.030 9   -703695.00148  21524358.096    21524357.5154   21524367.5244
       353.940         275.797
  -2874671.563 9  -2223438.02948  21417187.441    21417186.9934   21417196.6414
      2338.648        1822.323
   1659664.448 8   1286810.68145  23844798.304    23844797.8384   23844812.2684
     -1664.968       -1297.378
  -3435623.692 9  -2665309.14347  22695087.799    22695087.0464   22695099.2844
      2701.797        2105.296
  -1691066.400 9  -1294851.48845  24098660.072    24098659.0554   24098674.9094
      1273.025         991.968
  -3541869.518 9  -2737731.03848  21441110.408    21441110.4834   21441118.9774
      2721.026        2120.280
 80  4 13 21 50 19.9990000  0  8G19G18G31G27G03G02G10G13            -0.000290778
  -1049663.520 9   -811725.47049  20499563.750    20499563.3864   20499572.3694
       729.220         568.223
   1474846.931 9   1143695.63048  20688764.545    20688764.1704   20688773.0564
     -1532.327       -1194.021
   -914120.174 9   -706423.16148  21523691.855    21523691.2584   21523701.2704
       346.621         270.094
  -2898048.053 9  -2241653.45948  21412739.046    21412738.5824   21412748.2274
      2336.975        1821.019
   1676340.775 8   1299805.16945  23847971.738    23847971.2504   23847985.7394
     -1669.968       -1301.274
  -3462626.274 9  -2686350.06847  22689949.326    22689948.5924   22689960.8314
      2699.052        2103.157
  -1703764.098 8  -1304745.75945  24096243.734    24096242.8104   24096258.5574
      1266.848         987.154
  -3569054.234 9  -2758913.91648  21435937.314    21435937.3904   21435945.8794
      2716.324        2116.616
 80  4 13 21 50 29.9990000  0  8G19G18G31G27G03G02G10G13            -0.000294756
  -1056944.916 9   -817399.28049  20498178.142    20498177.7864   20498186.7534
       726.994         566.489
   1490196.644 9   1155656.43048  20691685.506    20691685.1304   20691694.0264
     -1537.655       -1198.173
   -917552.265 9   -709097.51248  21523038.728    21523038.1604   21523048.1704
       339.776         264.761
  -2921410.985 9  -2259858.32548  21408293.224    21408292.7574   21408302.3944
      2335.580        1819.932
   1693064.140 9   1312836.31346  23851154.128    23851153.6514   23851168.1594
     -1674.658       -1304.928
  -3489605.128 9  -2707372.51547  22684815.400    22684814.6614   22684826.9024
      2696.672        2101.303
  -1716403.079 9  -1314594.30745  24093838.660    24093837.6924   24093853.3424
      1260.961         982.567
  -3596195.239 9  -2780062.72948  21430772.542    21430772.6154   21430781.0984
      2711.958        2113.214
 80  4 13 21 50 39.9990000  0  8G19G18G31G27G03G02G10G13            -0.000298732
  -1064202.337 9   -823054.40649  20496797.092    20496796.7424   20496805.7024
       724.140         564.265
   1505602.021 9   1167660.60448  20694617.069    20694616.6914   20694625.5904
     -1543.704       -1202.886
   -920913.179 9   -711716.40648  21522399.174    21522398.6164   21522408.6134
       332.113         258.789
  -2944758.209 9  -2278050.94848  21403850.382    21403849.9164   21403859.5544
      2333.598        1818.388
   1709836.147 9   1325905.36345  23854345.773    23854345.3324   23854359.8654
     -1680.010       -1309.099
  -3516558.158 9  -2728374.85047  22679686.381    22679685.6334   22679697.8634
      2693.639        2098.939
  -1728981.435 8  -1324395.61445  24091445.059    24091444.1044   24091459.6874
      1254.433         977.480
  -3623290.337 9  -2801175.77148  21425616.508    21425616.5894   21425625.0594
      2706.867        2109.247
 80  4 13 21 50 49.9990000  0  8G19G18G31G27G03G02G10G13            -0.000302710
  -1071439.901 9   -828694.06249  20495419.846    20495419.4824   20495428.4524
       723.212         563.542
   1521058.271 9   1179704.41548  20697558.299    20697557.9234   20697566.8394
     -1547.696       -1205.997
   -924207.231 9   -714283.19548  21521772.341    21521771.7824   21521781.7614
       326.580         254.478
  -2968095.365 9  -2296235.73048  21399409.463    21399409.0054   21399418.6344
      2333.659        1818.436
   1726651.964 9   1339008.54646  23857545.738    23857545.3514   23857559.8904
     -1683.315       -1311.674
  -3543489.953 9  -2749360.61847  22674561.399    22674560.6584   22674572.8944
      2692.630        2098.153
  -1741504.441 8  -1334153.78645  24089062.003    24089061.0444   24089076.5954
      1249.980         974.010
  -3650343.670 9  -2822256.26948  21420468.415    21420468.5004   21420476.9614
      2703.733        2106.805
 80  4 13 21 50 59.9990000  0  8G19G18G31G27G03G02G10G13            -0.000306687
  -1078654.167 9   -834315.56449  20494047.027    20494046.6534   20494055.6314
       720.506         561.433
   1536568.513 9   1191790.30048  20700509.808    20700509.4334   20700518.3524
     -1553.419       -1210.456
   -927431.642 9   -716795.72548  21521158.742    21521158.1994   21521168.1734
       319.199         248.726
  -2991418.128 9  -2314409.29548  21394971.270    21394970.8144   21394980.4454
      2331.761        1816.957
   1743515.145 9   1352148.63146  23860754.717    23860754.3504   23860768.9314
     -1688.438       -1315.666
  -3570397.615 9  -2770327.59547  22669440.995    22669440.2704   22669452.5074
      2689.848        2095.985
  -1753967.695 8  -1343865.39145  24086690.192    24086689.3004   24086704.8834
      1243.562         969.009
  -3677351.729 9  -2843301.48748  21415328.953    21415329.0224   21415337.4914
      2698.866        2103.012
 80  4 13 21 51  9.9990000  0  8G19G18G31G27G03G02G10G13            -0.000310661
  -1085842.763 9   -839917.06349  20492679.080    20492678.7014   20492687.6784
       717.527         559.112
   1552133.386 9   1203918.75648  20703471.722    20703471.3384   20703480.2624
     -1559.151       -1214.923
   -930582.993 9   -719251.32848  21520559.065    21520558.5054   21520568.4794
       311.476         242.709
  -3014723.143 9  -2332569.02948  21390536.472    21390536.0034   21390545.6384
      2329.657        1815.317
   1760428.768 9   1365328.03146  23863973.309    23863972.9454   23863987.5534
     -1693.842       -1319.877
  -3597279.689 9  -2791274.63047  22664325.472    22664324.7564   22664336.9774
      2686.978        2093.749
  -1766368.677 9  -1353528.49945  24084330.375    24084329.4444   24084345.0354
      1237.021         963.912
  -3704312.639 9  -2864309.96848  21410198.449    21410198.5204   21410206.9844
      2693.826        2099.085
 80  4 13 21 51 19.9990000  0  8G19G18G31G27G03G02G10G13            -0.000314635
  -1093003.859 9   -845497.13249  20491316.355    20491316.0014   20491324.9644
       714.688         556.900
   1567752.051 9   1216089.12948  20706443.865    20706443.4944   20706452.4184
     -1564.535       -1219.118
   -933661.055 9   -721649.81948  21519973.319    21519972.7714   21519982.7524
       304.176         237.020
  -3038010.643 9  -2350715.11548  21386105.007    21386104.5374   21386114.1604
      2327.883        1813.935
   1777391.989 8   1378546.07746  23867201.325    23867200.9694   23867215.5854
     -1698.687       -1323.652
  -3624135.160 9  -2812200.92447  22659215.020    22659214.3034   22659226.5204
      2684.200        2091.584
  -1778708.050 9  -1363143.58045  24081982.275    24081981.3674   24081996.8894
      1230.901         959.144
  -3731227.107 9  -2885282.26248  21405076.785    21405076.8634   21405085.3164
      2689.209        2095.488
 80  4 13 21 51 29.9990000  0  8G19G18G31G27G03G02G10G13            -0.000318612
  -1100140.303 9   -851057.99349  20489958.347    20489957.9694   20489966.9434
       712.752         555.391
   1583420.735 9   1228298.47448  20709425.535    20709425.1504   20709434.0874
     -1569.059       -1222.643
   -936669.843 9   -723994.32948  21519400.778    21519400.2094   21519410.1774
       297.752         232.015
  -3061283.799 9  -2368850.02348  21381676.267    21381675.7974   21381685.4174
      2326.924        1813.188
   1794399.907 8   1391798.95246  23870437.835    23870437.5144   23870452.1404
     -1702.732       -1326.804
  -3650966.550 9  -2833108.46947  22654109.151    22654108.4324   22654120.6474
      2682.247        2090.063
  -1790989.685 9  -1372713.67345  24079645.172    24079644.2534   24079659.8144
      1225.579         954.997
  -3758098.808 9  -2906221.23148  21399963.265    21399963.3354   21399971.7784
      2685.381        2092.505
